CFG236 EDDF-MPTO

Flight info

Callsign CFG236
Flight time 11h 20m
Altitude 34000
Route OBOKA2E OBOKA Z29 TORNU DCT VELED DCT BREDA DCT GALSO Q63 ERING L179 UGBET Q60 OKSAW DCT BIBPE DCT ARPAK DCT FELCA DCT OFSOX DCT SLANY DCT LUNIG DCT TOBOR/M082F340 DCT 53N020W 53N030W 5230N04000W 51N050W DCT ALLRY/N0476F340 DCT YQX DCT ELERI/M078F340 DCT AVAST DCT DRYED DCT BEXUM DCT BOREX DCT CANEE/N0457F340 M331 GHANN UL347 TIMRO OSUPA2
Aircraft A339/H-SADE1E2E3GHIJ3J5M1P2RWXY/LB2D1

Departure

Time 2026-04-13 01:32
Airport Frankfurt Main Airport (EDDF)

Arrival

Time 2026-04-13 12:53
Airport Tocumen International Airport (MPTO)
Time Latitude Longitude Altitude Speed Heading
2026-04-13 01:13 50.04711 8.57281 362 ft 0 kts 276°
2026-04-13 01:22 50.04711 8.57283 362 ft 2 kts 276°
2026-04-13 01:22 50.04707 8.57321 362 ft 4 kts 289°
2026-04-13 01:23 50.04698 8.57359 364 ft 4 kts 306°
2026-04-13 01:23 50.04681 8.57391 362 ft 4 kts 317°
2026-04-13 01:23 50.04661 8.57418 365 ft 4 kts 316°
2026-04-13 01:23 50.04642 8.57448 368 ft 4 kts 319°
2026-04-13 01:24 50.04622 8.57474 362 ft 4 kts 326°
2026-04-13 01:24 50.04599 8.57497 364 ft 4 kts 335°
2026-04-13 01:24 50.04574 8.57513 365 ft 4 kts 342°
2026-04-13 01:24 50.04549 8.57525 368 ft 4 kts 342°
2026-04-13 01:25 50.04533 8.57533 367 ft 0 kts 336°
2026-04-13 01:26 50.04534 8.57532 368 ft 1 kts 336°
2026-04-13 01:26 50.04581 8.57493 366 ft 14 kts 321°
2026-04-13 01:26 50.04572 8.57333 367 ft 21 kts 250°
2026-04-13 01:26 50.04515 8.57093 367 ft 24 kts 250°
2026-04-13 01:27 50.04480 8.56943 368 ft 0 kts 250°
2026-04-13 01:27 50.04463 8.56883 369 ft 12 kts 239°
2026-04-13 01:27 50.04389 8.56842 371 ft 11 kts 190°
2026-04-13 01:27 50.04287 8.56807 368 ft 18 kts 193°
2026-04-13 01:28 50.04216 8.56644 368 ft 23 kts 249°
2026-04-13 01:28 50.04152 8.56385 366 ft 28 kts 249°
2026-04-13 01:28 50.04079 8.56082 365 ft 30 kts 250°
2026-04-13 01:28 50.04008 8.55783 363 ft 29 kts 250°
2026-04-13 01:29 50.03941 8.55497 358 ft 27 kts 250°
2026-04-13 01:29 50.03877 8.55230 364 ft 26 kts 249°
2026-04-13 01:29 50.03808 8.54950 361 ft 29 kts 249°
2026-04-13 01:29 50.03737 8.54664 356 ft 29 kts 249°
2026-04-13 01:30 50.03667 8.54373 353 ft 14 kts 249°
2026-04-13 01:30 50.03652 8.54326 356 ft 9 kts 234°
2026-04-13 01:30 50.03554 8.54335 352 ft 23 kts 160°
2026-04-13 01:30 50.03486 8.54411 359 ft 1 kts 112°
2026-04-13 01:31 50.03500 8.54453 357 ft 13 kts 63°
2026-04-13 01:31 50.03597 8.54859 356 ft 68 kts 70°
2026-04-13 01:31 50.03826 8.55803 363 ft 116 kts 69°
2026-04-13 01:31 50.04152 8.57176 375 ft 152 kts 69°
2026-04-13 01:32 50.04555 8.58846 432 ft 172 kts 68°
2026-04-13 01:32 50.04955 8.60521 890 ft 166 kts 69°
2026-04-13 01:32 50.05379 8.62212 1201 ft 171 kts 60°
2026-04-13 01:32 50.06247 8.63477 1391 ft 178 kts 22°
2026-04-13 01:33 50.07433 8.63794 1838 ft 172 kts
2026-04-13 01:33 50.08662 8.63693 2015 ft 186 kts 357°
2026-04-13 01:33 50.09997 8.63516 2194 ft 198 kts 357°
2026-04-13 01:33 50.11386 8.63358 2565 ft 204 kts 358°
2026-04-13 01:34 50.12856 8.63231 2771 ft 223 kts 360°
2026-04-13 01:34 50.14444 8.63095 3091 ft 238 kts 358°
2026-04-13 01:34 50.16192 8.62946 3245 ft 257 kts 360°
2026-04-13 01:34 50.17967 8.62853 3707 ft 259 kts 360°
2026-04-13 01:35 50.19779 8.62749 4216 ft 262 kts 359°
2026-04-13 01:35 50.21603 8.62634 4740 ft 264 kts 359°
2026-04-13 01:35 50.23456 8.62513 5203 ft 268 kts 359°
2026-04-13 01:35 50.25335 8.62388 5670 ft 272 kts 359°
2026-04-13 01:36 50.27217 8.61917 6085 ft 278 kts 339°
2026-04-13 01:36 50.28876 8.60370 6564 ft 280 kts 321°
2026-04-13 01:36 50.29759 8.59190 6828 ft 282 kts 317°
2026-04-13 01:37 50.30553 8.58021 7124 ft 283 kts 314°
2026-04-13 01:37 50.31934 8.55815 7597 ft 285 kts 311°
2026-04-13 01:37 50.33242 8.53475 8080 ft 287 kts 307°
2026-04-13 01:37 50.34421 8.50965 8626 ft 286 kts 301°
2026-04-13 01:38 50.35436 8.48271 9122 ft 288 kts 295°
2026-04-13 01:38 50.36242 8.45442 9635 ft 289 kts 288°
2026-04-13 01:38 50.36891 8.42419 10129 ft 290 kts 285°
2026-04-13 01:38 50.37417 8.39303 10296 ft 301 kts 276°
2026-04-13 01:39 50.37571 8.36277 10410 ft 312 kts 267°
2026-04-13 01:39 50.37340 8.32678 10560 ft 324 kts 256°
2026-04-13 01:39 50.36708 8.29235 10744 ft 333 kts 249°
2026-04-13 01:39 50.35979 8.25790 11257 ft 333 kts 250°
2026-04-13 01:40 50.35282 8.22337 11810 ft 332 kts 250°
2026-04-13 01:40 50.34595 8.18881 12315 ft 333 kts 250°
2026-04-13 01:40 50.33904 8.15408 12802 ft 335 kts 250°
2026-04-13 01:40 50.33210 8.11926 13298 ft 336 kts 250°
2026-04-13 01:41 50.32510 8.08431 13778 ft 337 kts 250°
2026-04-13 01:41 50.31806 8.04930 14206 ft 339 kts 250°
2026-04-13 01:41 50.31095 8.01406 14618 ft 340 kts 250°
2026-04-13 01:41 50.30381 7.97869 15043 ft 341 kts 250°
2026-04-13 01:42 50.29712 7.94300 15418 ft 345 kts 256°
2026-04-13 01:42 50.29597 7.90524 15814 ft 353 kts 273°
2026-04-13 01:42 50.30219 7.86772 16211 ft 362 kts 289°
2026-04-13 01:43 50.33439 7.75961 17451 ft 368 kts 290°
2026-04-13 01:43 50.34500 7.72312 17870 ft 369 kts 289°
2026-04-13 01:43 50.35739 7.68756 18233 ft 379 kts 302°
2026-04-13 01:44 50.37614 7.65798 18580 ft 390 kts 319°
2026-04-13 01:44 50.40020 7.63728 18922 ft 399 kts 332°
2026-04-13 01:44 50.42586 7.62017 19260 ft 402 kts 332°
2026-04-13 01:44 50.45169 7.60291 19608 ft 404 kts 332°
2026-04-13 01:45 50.47752 7.58542 19953 ft 405 kts 332°
2026-04-13 01:45 50.50342 7.56768 20278 ft 408 kts 332°
2026-04-13 01:45 50.52948 7.54971 20618 ft 410 kts 331°
2026-04-13 01:45 50.55548 7.53094 20968 ft 410 kts 327°
2026-04-13 01:46 50.57988 7.50804 21318 ft 408 kts 321°
2026-04-13 01:46 50.60359 7.48327 21634 ft 411 kts 321°
2026-04-13 01:46 50.62758 7.45864 22028 ft 412 kts 321°
2026-04-13 01:46 50.65171 7.43402 22425 ft 414 kts 321°
2026-04-13 01:47 50.67594 7.40922 22746 ft 417 kts 321°
2026-04-13 01:47 50.70034 7.38417 23087 ft 420 kts 321°
2026-04-13 01:47 50.72442 7.35813 23414 ft 417 kts 314°
2026-04-13 01:47 50.74498 7.32649 23717 ft 410 kts 303°
2026-04-13 01:48 50.76104 7.28984 24025 ft 403 kts 292°
2026-04-13 01:48 50.77368 7.25042 24308 ft 403 kts 290°
2026-04-13 01:48 50.78639 7.21085 24617 ft 405 kts 290°
2026-04-13 01:48 50.79926 7.17125 24912 ft 407 kts 290°
2026-04-13 01:49 50.81225 7.13136 25205 ft 409 kts 290°
2026-04-13 01:49 50.82527 7.09132 25490 ft 410 kts 290°
2026-04-13 01:49 50.83834 7.05104 25812 ft 412 kts 290°
2026-04-13 01:49 50.85142 7.01060 26107 ft 414 kts 289°
2026-04-13 01:50 50.86452 6.96999 26386 ft 416 kts 289°
2026-04-13 01:50 50.87785 6.92862 26676 ft 417 kts 289°
2026-04-13 01:50 50.89088 6.88808 26928 ft 419 kts 289°
2026-04-13 01:50 50.90414 6.84683 27203 ft 421 kts 289°
2026-04-13 01:51 50.91761 6.80483 27463 ft 423 kts 289°
2026-04-13 01:51 50.93095 6.76319 27737 ft 425 kts 289°
2026-04-13 01:51 50.94416 6.72184 27994 ft 426 kts 289°
2026-04-13 01:51 50.95755 6.67986 28261 ft 428 kts 289°
2026-04-13 01:52 50.97102 6.63758 28532 ft 430 kts 289°
2026-04-13 01:52 50.98452 6.59515 28844 ft 431 kts 288°
2026-04-13 01:52 50.99365 6.56643 29061 ft 431 kts 288°
2026-04-13 01:52 51.00716 6.52381 29298 ft 434 kts 288°
2026-04-13 01:53 51.02516 6.46692 29615 ft 436 kts 288°
2026-04-13 01:53 51.03435 6.43783 29781 ft 437 kts 288°
2026-04-13 01:53 51.04800 6.39454 30007 ft 439 kts 288°
2026-04-13 01:53 51.06170 6.35102 30241 ft 441 kts 288°
2026-04-13 01:54 51.07524 6.30796 30468 ft 442 kts 288°
2026-04-13 01:54 51.08897 6.26423 30671 ft 443 kts 288°
2026-04-13 01:54 51.10292 6.21968 30906 ft 445 kts 288°
2026-04-13 01:54 51.11669 6.17562 31131 ft 446 kts 288°
2026-04-13 01:55 51.13017 6.13183 31404 ft 444 kts 285°
2026-04-13 01:55 51.14154 6.08648 31614 ft 439 kts 279°
2026-04-13 01:55 51.15010 6.04014 31831 ft 434 kts 275°
2026-04-13 01:55 51.15743 5.99334 32037 ft 436 kts 275°
2026-04-13 01:56 51.16501 5.94644 32260 ft 437 kts 276°
2026-04-13 01:56 51.17273 5.89951 32453 ft 440 kts 277°
2026-04-13 01:56 51.18289 5.85292 32612 ft 450 kts 283°
2026-04-13 01:56 51.19663 5.80771 32822 ft 459 kts 290°
2026-04-13 01:57 51.21384 5.76446 33064 ft 466 kts 296°
2026-04-13 01:57 51.25191 5.68005 33247 ft 470 kts 295°
2026-04-13 01:58 51.28972 5.59487 33454 ft 471 kts 295°
2026-04-13 01:58 51.30862 5.55214 33578 ft 471 kts 295°
2026-04-13 01:58 51.32750 5.50940 33712 ft 470 kts 295°
2026-04-13 01:58 51.34634 5.46672 33856 ft 470 kts 295°
2026-04-13 01:59 51.36514 5.42403 33990 ft 469 kts 295°
2026-04-13 01:59 51.40041 5.33717 34022 ft 458 kts 288°
2026-04-13 02:00 51.43018 5.24692 34025 ft 460 kts 287°
2026-04-13 02:00 51.46032 5.15661 34020 ft 459 kts 287°
2026-04-13 02:01 51.49026 5.06659 34017 ft 456 kts 287°
2026-04-13 02:01 51.52001 4.97648 34037 ft 458 kts 287°
2026-04-13 02:02 51.54864 4.88550 34046 ft 451 kts 282°
2026-04-13 02:02 51.56710 4.79116 34057 ft 435 kts 271°
2026-04-13 02:02 51.57236 4.74404 34023 ft 424 kts 269°
2026-04-13 02:03 51.57733 4.69738 34017 ft 425 kts 269°
2026-04-13 02:03 51.58758 4.60340 33997 ft 427 kts 269°
2026-04-13 02:04 51.59775 4.50943 34001 ft 426 kts 269°
2026-04-13 02:04 51.60777 4.41549 33999 ft 426 kts 269°
2026-04-13 02:05 51.61771 4.32143 33996 ft 426 kts 269°
2026-04-13 02:05 51.62757 4.22737 34000 ft 426 kts 269°
2026-04-13 02:06 51.63729 4.13392 34003 ft 426 kts 269°
2026-04-13 02:06 51.64699 4.03988 34007 ft 426 kts 269°
2026-04-13 02:07 51.65662 3.94580 34010 ft 426 kts 269°
2026-04-13 02:07 51.66618 3.85168 34051 ft 426 kts 268°
2026-04-13 02:08 51.67568 3.75744 34015 ft 426 kts 268°
2026-04-13 02:08 51.68509 3.66329 34010 ft 426 kts 268°
2026-04-13 02:09 51.69441 3.56914 34010 ft 425 kts 268°
2026-04-13 02:09 51.70364 3.47501 33999 ft 425 kts 268°
2026-04-13 02:10 51.71279 3.38099 34039 ft 425 kts 267°
2026-04-13 02:10 51.72188 3.28665 34011 ft 426 kts 267°
2026-04-13 02:11 51.72895 3.19246 34003 ft 417 kts 261°
2026-04-13 02:11 51.72680 3.10051 33984 ft 405 kts 253°
2026-04-13 02:12 51.71880 3.01092 33977 ft 404 kts 252°
2026-04-13 02:12 51.71108 2.92123 33990 ft 404 kts 252°
2026-04-13 02:13 51.70323 2.83139 33982 ft 406 kts 252°
2026-04-13 02:13 51.69526 2.74127 33991 ft 406 kts 252°
2026-04-13 02:14 51.68723 2.65133 33988 ft 406 kts 252°
2026-04-13 02:14 51.67920 2.56180 33986 ft 406 kts 252°
2026-04-13 02:15 51.67106 2.47176 33982 ft 406 kts 252°
2026-04-13 02:15 51.66280 2.38174 33967 ft 408 kts 252°
2026-04-13 02:16 51.65443 2.29122 33980 ft 409 kts 252°
2026-04-13 02:16 51.64601 2.20071 33985 ft 409 kts 252°
2026-04-13 02:17 51.63751 2.11008 33991 ft 409 kts 252°
2026-04-13 02:17 51.62909 2.01943 33987 ft 410 kts 252°
2026-04-13 02:18 51.62070 1.92871 34030 ft 410 kts 252°
2026-04-13 02:18 51.61207 1.83720 33983 ft 417 kts 253°
2026-04-13 02:19 51.60335 1.74490 33983 ft 417 kts 253°
2026-04-13 02:19 51.59467 1.65271 33980 ft 418 kts 255°
2026-04-13 02:20 51.59269 1.55792 33981 ft 431 kts 264°
2026-04-13 02:20 51.59721 1.46167 33984 ft 432 kts 265°
2026-04-13 02:21 51.60130 1.36490 33978 ft 437 kts 265°
2026-04-13 02:21 51.60538 1.26712 33983 ft 437 kts 265°
2026-04-13 02:22 51.60938 1.16957 33982 ft 437 kts 265°
2026-04-13 02:22 51.61329 1.07191 33982 ft 437 kts 265°
2026-04-13 02:23 51.61710 0.97426 33980 ft 437 kts 265°
2026-04-13 02:23 51.62079 0.87593 33976 ft 443 kts 266°
2026-04-13 02:24 51.62453 0.77690 33978 ft 443 kts 266°
2026-04-13 02:24 51.62816 0.67844 33986 ft 444 kts 266°
2026-04-13 02:25 51.63170 0.57933 33983 ft 443 kts 266°
2026-04-13 02:25 51.63515 0.48028 34010 ft 443 kts 266°
2026-04-13 02:26 51.63852 0.38100 33980 ft 444 kts 266°
2026-04-13 02:26 51.64182 0.28169 33980 ft 444 kts 266°
2026-04-13 02:27 51.64465 0.18236 33980 ft 442 kts 263°
2026-04-13 02:27 51.63909 0.08507 33982 ft 434 kts 254°
2026-04-13 02:28 51.62848 -0.01065 33965 ft 435 kts 255°
2026-04-13 02:28 51.62000 -0.10802 33946 ft 445 kts 262°
2026-04-13 02:29 51.62221 -0.20830 33938 ft 452 kts 270°
2026-04-13 02:29 51.62871 -0.30879 33938 ft 452 kts 270°
2026-04-13 02:30 51.63479 -0.40941 33965 ft 451 kts 270°
2026-04-13 02:30 51.64075 -0.50993 33966 ft 451 kts 270°
2026-04-13 02:31 51.64665 -0.61046 33969 ft 451 kts 270°
2026-04-13 02:31 51.65246 -0.71108 33970 ft 451 kts 270°
2026-04-13 02:32 51.65818 -0.81160 33973 ft 451 kts 269°
2026-04-13 02:32 51.66383 -0.91220 33977 ft 451 kts 269°
2026-04-13 02:33 51.66935 -1.01296 33947 ft 452 kts 270°
2026-04-13 02:33 51.67484 -1.11399 33955 ft 453 kts 270°
2026-04-13 02:34 51.68026 -1.21520 33959 ft 454 kts 270°
2026-04-13 02:34 51.68559 -1.31665 33964 ft 454 kts 270°
2026-04-13 02:35 51.69083 -1.41810 33966 ft 454 kts 270°
2026-04-13 02:35 51.69596 -1.51971 33962 ft 456 kts 271°
2026-04-13 02:36 51.70107 -1.62167 33957 ft 457 kts 271°
2026-04-13 02:36 51.70633 -1.72372 33942 ft 458 kts 272°
2026-04-13 02:37 51.71397 -1.82575 33959 ft 459 kts 273°
2026-04-13 02:37 51.72167 -1.92793 33968 ft 459 kts 272°
2026-04-13 02:38 51.72896 -2.03023 33968 ft 459 kts 273°
2026-04-13 02:38 51.73493 -2.11516 33970 ft 459 kts 273°
2026-04-13 02:39 51.74201 -2.21751 33958 ft 459 kts 273°
2026-04-13 02:39 51.74900 -2.31984 33970 ft 459 kts 273°
2026-04-13 02:40 51.75588 -2.42201 33963 ft 458 kts 273°
2026-04-13 02:40 51.76266 -2.52432 33965 ft 458 kts 274°
2026-04-13 02:41 51.76939 -2.62664 33964 ft 458 kts 274°
2026-04-13 02:41 51.77600 -2.72881 33961 ft 458 kts 273°
2026-04-13 02:42 51.78253 -2.83105 33939 ft 458 kts 273°
2026-04-13 02:42 51.78896 -2.93331 33947 ft 458 kts 274°
2026-04-13 02:43 51.79531 -3.03566 33936 ft 457 kts 274°
2026-04-13 02:43 51.80157 -3.13786 33942 ft 457 kts 274°
2026-04-13 02:44 51.80774 -3.24012 33946 ft 457 kts 274°
2026-04-13 02:44 51.81383 -3.34229 33954 ft 457 kts 273°
2026-04-13 02:45 51.81978 -3.44464 33964 ft 457 kts 274°
2026-04-13 02:45 51.82636 -3.54670 33964 ft 457 kts 278°
2026-04-13 02:46 51.83937 -3.64742 33960 ft 457 kts 280°
2026-04-13 02:46 51.85242 -3.74804 33958 ft 457 kts 280°
2026-04-13 02:47 51.87177 -3.89926 33958 ft 457 kts 280°
2026-04-13 02:47 51.88452 -3.99988 33969 ft 456 kts 281°
2026-04-13 02:48 51.89721 -4.10043 33956 ft 455 kts 281°
2026-04-13 02:48 51.90979 -4.20091 33951 ft 455 kts 281°
2026-04-13 02:49 51.92226 -4.30129 33948 ft 455 kts 281°
2026-04-13 02:49 51.93464 -4.40181 33951 ft 454 kts 281°
2026-04-13 02:50 51.94689 -4.50205 33953 ft 453 kts 281°
2026-04-13 02:50 51.95907 -4.60229 33965 ft 453 kts 281°
2026-04-13 02:51 51.97115 -4.70248 33941 ft 453 kts 281°
2026-04-13 02:51 51.98313 -4.80263 33940 ft 452 kts 281°
2026-04-13 02:52 51.99502 -4.90284 33932 ft 452 kts 281°
2026-04-13 02:52 52.00677 -5.00280 33941 ft 450 kts 281°
2026-04-13 02:53 52.01846 -5.10270 33936 ft 450 kts 281°
2026-04-13 02:53 52.03075 -5.20213 33931 ft 449 kts 285°
2026-04-13 02:54 52.05004 -5.29852 33927 ft 449 kts 288°
2026-04-13 02:54 52.06957 -5.39478 33923 ft 449 kts 288°
2026-04-13 02:55 52.08894 -5.49127 33924 ft 449 kts 288°
2026-04-13 02:55 52.10822 -5.58780 33922 ft 449 kts 288°
2026-04-13 02:56 52.12742 -5.68437 33922 ft 449 kts 288°
2026-04-13 02:56 52.14642 -5.78038 33940 ft 449 kts 288°
2026-04-13 02:57 52.16274 -5.87862 33917 ft 450 kts 280°
2026-04-13 02:57 52.17320 -5.97876 33916 ft 446 kts 281°
2026-04-13 02:58 52.18397 -6.07815 33918 ft 446 kts 281°
2026-04-13 02:58 52.19462 -6.17770 33917 ft 446 kts 281°
2026-04-13 02:59 52.20514 -6.27736 33917 ft 446 kts 281°
2026-04-13 02:59 52.21556 -6.37701 33909 ft 446 kts 281°
2026-04-13 03:00 52.22582 -6.47655 33909 ft 442 kts 281°
2026-04-13 03:00 52.23598 -6.57517 33915 ft 441 kts 281°
2026-04-13 03:01 52.24607 -6.67395 33912 ft 442 kts 281°
2026-04-13 03:01 52.25607 -6.77290 33910 ft 442 kts 281°
2026-04-13 03:02 52.26598 -6.87178 33911 ft 442 kts 281°
2026-04-13 03:02 52.27575 -6.97056 33905 ft 436 kts 282°
2026-04-13 03:03 52.28530 -7.06773 33908 ft 434 kts 282°
2026-04-13 03:03 52.29485 -7.16526 33911 ft 435 kts 282°
2026-04-13 03:04 52.30430 -7.26284 33922 ft 436 kts 281°
2026-04-13 03:04 52.31370 -7.36089 33909 ft 437 kts 281°
2026-04-13 03:05 52.32297 -7.45885 33894 ft 434 kts 282°
2026-04-13 03:05 52.33198 -7.55509 33904 ft 427 kts 282°
2026-04-13 03:06 52.34101 -7.65148 33903 ft 429 kts 282°
2026-04-13 03:06 52.34993 -7.74791 33909 ft 429 kts 282°
2026-04-13 03:07 52.35877 -7.84441 33908 ft 429 kts 282°
2026-04-13 03:07 52.36752 -7.94091 33906 ft 429 kts 282°
2026-04-13 03:08 52.37604 -8.03643 33899 ft 419 kts 283°
2026-04-13 03:08 52.38445 -8.13061 33902 ft 422 kts 283°
2026-04-13 03:09 52.39285 -8.22562 33901 ft 421 kts 283°
2026-04-13 03:09 52.39921 -8.32181 33900 ft 424 kts 278°
2026-04-13 03:10 52.40308 -8.41815 33896 ft 424 kts 279°
2026-04-13 03:10 52.40719 -8.51404 33883 ft 416 kts 279°
2026-04-13 03:11 52.41117 -8.60789 33888 ft 414 kts 279°
2026-04-13 03:11 52.41509 -8.70224 33881 ft 415 kts 279°
2026-04-13 03:12 52.41885 -8.79658 33883 ft 415 kts 279°
2026-04-13 03:12 52.42253 -8.89087 33890 ft 415 kts 279°
2026-04-13 03:13 52.42612 -8.98474 33882 ft 415 kts 279°
2026-04-13 03:13 52.42954 -9.07811 33884 ft 405 kts 279°
2026-04-13 03:14 52.43296 -9.17070 33877 ft 408 kts 279°
2026-04-13 03:14 52.43626 -9.26276 33879 ft 407 kts 279°
2026-04-13 03:15 52.43950 -9.35543 33893 ft 407 kts 279°
2026-04-13 03:15 52.44267 -9.44810 33881 ft 407 kts 279°
2026-04-13 03:16 52.44571 -9.54009 33880 ft 398 kts 279°
2026-04-13 03:16 52.44867 -9.63062 33882 ft 399 kts 279°
2026-04-13 03:17 52.45159 -9.72156 33884 ft 399 kts 279°
2026-04-13 03:17 52.45442 -9.81242 33885 ft 399 kts 279°
2026-04-13 03:18 52.45718 -9.90335 33881 ft 399 kts 279°
2026-04-13 03:18 52.45986 -9.99436 33880 ft 399 kts 279°
2026-04-13 03:19 52.46243 -10.08466 33881 ft 395 kts 279°
2026-04-13 03:19 52.46497 -10.17471 33881 ft 396 kts 279°
2026-04-13 03:20 52.46743 -10.26488 33878 ft 396 kts 279°
2026-04-13 03:20 52.46982 -10.35511 33879 ft 396 kts 279°
2026-04-13 03:21 52.47214 -10.44529 33878 ft 396 kts 279°
2026-04-13 03:21 52.47439 -10.53545 33878 ft 396 kts 279°
2026-04-13 03:22 52.47622 -10.61047 33873 ft 396 kts 279°
2026-04-13 03:22 52.47835 -10.70079 33870 ft 396 kts 278°
2026-04-13 03:23 52.48041 -10.79101 33870 ft 396 kts 278°
2026-04-13 03:23 52.48240 -10.88137 33870 ft 396 kts 278°
2026-04-13 03:24 52.48432 -10.97173 33867 ft 396 kts 278°
2026-04-13 03:24 52.48618 -11.06204 33859 ft 396 kts 278°
2026-04-13 03:25 52.48797 -11.15231 33879 ft 396 kts 278°
2026-04-13 03:25 52.48968 -11.24258 33875 ft 396 kts 278°
2026-04-13 03:26 52.49133 -11.33275 33871 ft 395 kts 278°
2026-04-13 03:26 52.49290 -11.42282 33867 ft 395 kts 278°
2026-04-13 03:27 52.49440 -11.51298 33865 ft 395 kts 278°
2026-04-13 03:27 52.49584 -11.60301 33875 ft 394 kts 278°
2026-04-13 03:28 52.49721 -11.69298 33856 ft 395 kts 278°
2026-04-13 03:28 52.49851 -11.78309 33851 ft 395 kts 278°
2026-04-13 03:29 52.49974 -11.87326 33849 ft 395 kts 278°
2026-04-13 03:29 52.50090 -11.96335 33856 ft 395 kts 278°
2026-04-13 03:30 52.50199 -12.05303 33833 ft 395 kts 277°
2026-04-13 03:30 52.50303 -12.14309 33857 ft 395 kts 277°
2026-04-13 03:31 52.50399 -12.23328 33853 ft 396 kts 277°
2026-04-13 03:31 52.50488 -12.32359 33856 ft 396 kts 277°
2026-04-13 03:32 52.50570 -12.41397 33857 ft 396 kts 277°
2026-04-13 03:32 52.50645 -12.50438 33852 ft 396 kts 277°
2026-04-13 03:33 52.50715 -12.59479 33849 ft 396 kts 277°
2026-04-13 03:33 52.50777 -12.68514 33850 ft 396 kts 276°
2026-04-13 03:34 52.50831 -12.77560 33851 ft 396 kts 276°
2026-04-13 03:34 52.50878 -12.86605 33851 ft 396 kts 276°
2026-04-13 03:35 52.50919 -12.95652 33850 ft 396 kts 276°
2026-04-13 03:35 52.50953 -13.04705 33850 ft 397 kts 276°
2026-04-13 03:36 52.50982 -13.13739 33853 ft 396 kts 276°
2026-04-13 03:36 52.51002 -13.22771 33849 ft 396 kts 276°
2026-04-13 03:37 52.51015 -13.31749 33848 ft 396 kts 276°
2026-04-13 03:37 52.51021 -13.40778 33847 ft 395 kts 275°
2026-04-13 03:38 52.51021 -13.49793 33844 ft 395 kts 275°
2026-04-13 03:38 52.51014 -13.58807 33819 ft 394 kts 275°
2026-04-13 03:39 52.51001 -13.67797 33840 ft 394 kts 275°
2026-04-13 03:39 52.50979 -13.76799 33837 ft 394 kts 275°
2026-04-13 03:40 52.50951 -13.85792 33840 ft 394 kts 275°
2026-04-13 03:40 52.50917 -13.94791 33835 ft 394 kts 275°
2026-04-13 03:41 52.50875 -14.03793 33838 ft 394 kts 275°
2026-04-13 03:41 52.50828 -14.12792 33820 ft 394 kts 274°
2026-04-13 03:42 52.50773 -14.21790 33819 ft 395 kts 274°
2026-04-13 03:43 52.50676 -14.35334 33821 ft 396 kts 274°
2026-04-13 03:43 52.50604 -14.44308 33830 ft 396 kts 274°
2026-04-13 03:44 52.50525 -14.53345 33827 ft 396 kts 274°
2026-04-13 03:44 52.50440 -14.62392 33824 ft 396 kts 273°
2026-04-13 03:45 52.50347 -14.71452 33831 ft 397 kts 273°
2026-04-13 03:45 52.50249 -14.80519 33831 ft 398 kts 273°
2026-04-13 03:46 52.50148 -14.89583 33832 ft 398 kts 273°
2026-04-13 03:46 52.50064 -14.98659 33823 ft 396 kts 276°
2026-04-13 03:47 52.50884 -15.07526 33826 ft 392 kts 284°
2026-04-13 03:47 52.51974 -15.16314 33797 ft 393 kts 283°
2026-04-13 03:48 52.53050 -15.25127 33808 ft 394 kts 283°
2026-04-13 03:48 52.54114 -15.33982 33816 ft 395 kts 283°
2026-04-13 03:49 52.55169 -15.42847 33817 ft 396 kts 283°
2026-04-13 03:49 52.56212 -15.51682 33819 ft 397 kts 283°
2026-04-13 03:50 52.57256 -15.60587 33825 ft 397 kts 283°
2026-04-13 03:50 52.58300 -15.69553 33821 ft 397 kts 283°
2026-04-13 03:51 52.59326 -15.78421 33822 ft 397 kts 283°
2026-04-13 03:51 52.60350 -15.87340 33823 ft 397 kts 283°
2026-04-13 03:52 52.61876 -16.00737 33819 ft 397 kts 283°
2026-04-13 03:52 52.62883 -16.09665 33819 ft 397 kts 283°
2026-04-13 03:53 52.63884 -16.18595 33815 ft 394 kts 282°
2026-04-13 03:53 52.64865 -16.27409 33803 ft 393 kts 282°
2026-04-13 03:54 52.65849 -16.36316 33806 ft 396 kts 282°
2026-04-13 03:54 52.66826 -16.45237 33807 ft 396 kts 282°
2026-04-13 03:55 52.67797 -16.54162 33807 ft 396 kts 282°
2026-04-13 03:55 52.68762 -16.63091 33803 ft 396 kts 282°
2026-04-13 03:56 52.69720 -16.72025 33801 ft 396 kts 282°
2026-04-13 03:56 52.70673 -16.80973 33776 ft 396 kts 281°
2026-04-13 03:57 52.71619 -16.89918 33786 ft 397 kts 281°
2026-04-13 03:57 52.72560 -16.98895 33793 ft 398 kts 281°
2026-04-13 03:58 52.73495 -17.07891 33799 ft 398 kts 281°
2026-04-13 03:58 52.74426 -17.16906 33790 ft 398 kts 281°
2026-04-13 03:59 52.75341 -17.25843 33794 ft 392 kts 281°
2026-04-13 03:59 52.76247 -17.34751 33794 ft 394 kts 281°
2026-04-13 04:00 52.77147 -17.43661 33786 ft 398 kts 281°
2026-04-13 04:00 52.78052 -17.52717 33784 ft 397 kts 281°
2026-04-13 04:01 52.78940 -17.61661 33792 ft 397 kts 281°
2026-04-13 04:01 52.79827 -17.70672 33785 ft 398 kts 281°
2026-04-13 04:02 52.80708 -17.79695 33794 ft 398 kts 280°
2026-04-13 04:02 52.81582 -17.88720 33783 ft 398 kts 280°
2026-04-13 04:03 52.82451 -17.97760 33781 ft 398 kts 280°
2026-04-13 04:03 52.83311 -18.06799 33783 ft 398 kts 280°
2026-04-13 04:04 52.84166 -18.15846 33790 ft 398 kts 280°
2026-04-13 04:04 52.85014 -18.24898 33801 ft 398 kts 279°
2026-04-13 04:05 52.85854 -18.33942 33786 ft 397 kts 279°
2026-04-13 04:05 52.86686 -18.42979 33792 ft 397 kts 279°
2026-04-13 04:06 52.87512 -18.52007 33764 ft 396 kts 279°
2026-04-13 04:06 52.88328 -18.61033 33772 ft 397 kts 279°
2026-04-13 04:07 52.89138 -18.70069 33764 ft 397 kts 279°
2026-04-13 04:07 52.89942 -18.79104 33768 ft 397 kts 279°
2026-04-13 04:08 52.90739 -18.88147 33765 ft 397 kts 279°
2026-04-13 04:08 52.91529 -18.97197 33756 ft 397 kts 279°
2026-04-13 04:09 52.92312 -19.06245 33754 ft 397 kts 278°
2026-04-13 04:09 52.93085 -19.15239 33754 ft 397 kts 278°
2026-04-13 04:10 52.93854 -19.24296 33771 ft 397 kts 278°
2026-04-13 04:10 52.94617 -19.33367 33770 ft 397 kts 278°
2026-04-13 04:11 52.95372 -19.42428 33755 ft 397 kts 278°
2026-04-13 04:11 52.96121 -19.51495 33752 ft 397 kts 278°
2026-04-13 04:12 52.96863 -19.60561 33758 ft 397 kts 278°
2026-04-13 04:12 52.97481 -19.68161 33748 ft 397 kts 277°
2026-04-13 04:13 52.98205 -19.77178 33755 ft 397 kts 277°
2026-04-13 04:13 52.98930 -19.86262 33737 ft 397 kts 277°
2026-04-13 04:14 52.99658 -19.95422 33754 ft 398 kts 277°
2026-04-13 04:14 53.00190 -20.04499 33756 ft 398 kts 273°
2026-04-13 04:15 53.00527 -20.13659 33750 ft 398 kts 274°
2026-04-13 04:15 53.00912 -20.22829 33732 ft 398 kts 274°
2026-04-13 04:16 53.01287 -20.32010 33742 ft 399 kts 274°
2026-04-13 04:16 53.01653 -20.41220 33743 ft 400 kts 274°
2026-04-13 04:17 53.02012 -20.50441 33751 ft 400 kts 274°
2026-04-13 04:17 53.02362 -20.59666 33743 ft 400 kts 274°
2026-04-13 04:18 53.02702 -20.68907 33734 ft 400 kts 274°
2026-04-13 04:18 53.03033 -20.78133 33712 ft 401 kts 273°
2026-04-13 04:19 53.03357 -20.87376 33730 ft 401 kts 273°
2026-04-13 04:19 53.03674 -20.96630 33733 ft 401 kts 273°
2026-04-13 04:20 53.03984 -21.05897 33735 ft 402 kts 273°
2026-04-13 04:20 53.04287 -21.15164 33736 ft 402 kts 273°
2026-04-13 04:21 53.04583 -21.24436 33734 ft 402 kts 273°
2026-04-13 04:21 53.04872 -21.33713 33734 ft 402 kts 273°
2026-04-13 04:22 53.05154 -21.42988 33731 ft 402 kts 273°
2026-04-13 04:22 53.05427 -21.52277 33725 ft 403 kts 273°
2026-04-13 04:23 53.05695 -21.61579 33725 ft 403 kts 273°
2026-04-13 04:23 53.05955 -21.70877 33720 ft 403 kts 273°
2026-04-13 04:24 53.06207 -21.80117 33723 ft 403 kts 273°
2026-04-13 04:24 53.06454 -21.89422 33706 ft 403 kts 272°
2026-04-13 04:25 53.06693 -21.98731 33717 ft 404 kts 272°
2026-04-13 04:25 53.06924 -22.08064 33724 ft 404 kts 272°
2026-04-13 04:26 53.07149 -22.17400 33704 ft 404 kts 272°
2026-04-13 04:26 53.07367 -22.26749 33705 ft 405 kts 272°
2026-04-13 04:27 53.07578 -22.36105 33704 ft 405 kts 272°
2026-04-13 04:27 53.07782 -22.45459 33703 ft 405 kts 272°
2026-04-13 04:28 53.07978 -22.54831 33701 ft 406 kts 272°
2026-04-13 04:28 53.08167 -22.64221 33703 ft 406 kts 272°
2026-04-13 04:29 53.08347 -22.73558 33712 ft 407 kts 272°
2026-04-13 04:29 53.08523 -22.82967 33711 ft 407 kts 272°
2026-04-13 04:30 53.08691 -22.92386 33700 ft 407 kts 272°
2026-04-13 04:30 53.08851 -23.01802 33696 ft 407 kts 272°
2026-04-13 04:31 53.09004 -23.11228 33702 ft 408 kts 271°
2026-04-13 04:31 53.09151 -23.20748 33697 ft 409 kts 271°
2026-04-13 04:32 53.09288 -23.30135 33692 ft 409 kts 271°
2026-04-13 04:32 53.09419 -23.39602 33696 ft 409 kts 271°
2026-04-13 04:33 53.09542 -23.49068 33690 ft 409 kts 271°
2026-04-13 04:33 53.09658 -23.58530 33677 ft 410 kts 271°
2026-04-13 04:34 53.09767 -23.68020 33676 ft 410 kts 271°
2026-04-13 04:34 53.09868 -23.77518 33679 ft 411 kts 271°
2026-04-13 04:35 53.09962 -23.87022 33715 ft 411 kts 271°
2026-04-13 04:35 53.10049 -23.96542 33694 ft 411 kts 271°
2026-04-13 04:36 53.10127 -24.06066 33671 ft 412 kts 271°
2026-04-13 04:36 53.10199 -24.15581 33650 ft 412 kts 271°
2026-04-13 04:37 53.10262 -24.25122 33665 ft 413 kts 271°
2026-04-13 04:37 53.10318 -24.34674 33665 ft 413 kts 271°
2026-04-13 04:38 53.10367 -24.44240 33668 ft 413 kts 270°
2026-04-13 04:38 53.10407 -24.53803 33669 ft 413 kts 270°
2026-04-13 04:39 53.10441 -24.63361 33667 ft 413 kts 270°
2026-04-13 04:39 53.10467 -24.72929 33657 ft 413 kts 270°
2026-04-13 04:40 53.10484 -24.82496 33657 ft 413 kts 270°
2026-04-13 04:40 53.10494 -24.92064 33658 ft 414 kts 270°
2026-04-13 04:41 53.10496 -25.01630 33648 ft 414 kts 270°
2026-04-13 04:41 53.10491 -25.11205 33657 ft 414 kts 270°
2026-04-13 04:42 53.10479 -25.20740 33656 ft 415 kts 270°
2026-04-13 04:43 53.10430 -25.39930 33648 ft 415 kts 270°
2026-04-13 04:43 53.10394 -25.49526 33644 ft 415 kts 270°
2026-04-13 04:44 53.10350 -25.59126 33647 ft 415 kts 269°
2026-04-13 04:44 53.10299 -25.68730 33638 ft 415 kts 269°
2026-04-13 04:45 53.10239 -25.78328 33639 ft 415 kts 269°
2026-04-13 04:45 53.10173 -25.87927 33635 ft 415 kts 269°
2026-04-13 04:46 53.10098 -25.97536 33631 ft 415 kts 269°
2026-04-13 04:46 53.10016 -26.07136 33634 ft 415 kts 269°
2026-04-13 04:47 53.09925 -26.16750 33627 ft 415 kts 269°
2026-04-13 04:47 53.09828 -26.26346 33627 ft 415 kts 269°
2026-04-13 04:48 53.09722 -26.35962 33624 ft 415 kts 269°
2026-04-13 04:48 53.09611 -26.45392 33624 ft 404 kts 269°
2026-04-13 04:49 53.09492 -26.54791 33629 ft 407 kts 269°
2026-04-13 04:49 53.09366 -26.64201 33622 ft 407 kts 269°
2026-04-13 04:50 53.09233 -26.73611 33625 ft 407 kts 269°
2026-04-13 04:50 53.09093 -26.83011 33623 ft 407 kts 268°
2026-04-13 04:51 53.08945 -26.92415 33616 ft 407 kts 268°
2026-04-13 04:51 53.08789 -27.01825 33615 ft 407 kts 268°
2026-04-13 04:52 53.08626 -27.11227 33618 ft 407 kts 268°
2026-04-13 04:52 53.08457 -27.20567 33615 ft 407 kts 268°
2026-04-13 04:53 53.08279 -27.30007 33607 ft 406 kts 268°
2026-04-13 04:53 53.08095 -27.39355 33608 ft 406 kts 268°
2026-04-13 04:54 53.07903 -27.48745 33591 ft 407 kts 268°
2026-04-13 04:54 53.07704 -27.58137 33607 ft 406 kts 268°
2026-04-13 04:55 53.07496 -27.67534 33605 ft 406 kts 268°
2026-04-13 04:55 53.07282 -27.76909 33598 ft 406 kts 268°
2026-04-13 04:56 53.07060 -27.86292 33602 ft 406 kts 268°
2026-04-13 04:56 53.06831 -27.95656 33600 ft 406 kts 267°
2026-04-13 04:57 53.06595 -28.05027 33590 ft 405 kts 267°
2026-04-13 04:57 53.06353 -28.14369 33604 ft 404 kts 267°
2026-04-13 04:58 53.06103 -28.23695 33597 ft 404 kts 267°
2026-04-13 04:58 53.05846 -28.33009 33597 ft 403 kts 267°
2026-04-13 04:59 53.05582 -28.42322 33583 ft 403 kts 267°
2026-04-13 04:59 53.05357 -28.50050 33584 ft 403 kts 267°
2026-04-13 05:00 53.05082 -28.59343 33591 ft 402 kts 267°
2026-04-13 05:00 53.04800 -28.68613 33614 ft 401 kts 266°
2026-04-13 05:01 53.04508 -28.77890 33581 ft 402 kts 266°
2026-04-13 05:01 53.04209 -28.87152 33576 ft 402 kts 266°
2026-04-13 05:02 53.03904 -28.96423 33581 ft 402 kts 266°
2026-04-13 05:02 53.03592 -29.05689 33575 ft 402 kts 266°
2026-04-13 05:03 53.03272 -29.14954 33579 ft 402 kts 266°
2026-04-13 05:03 53.02948 -29.24202 33582 ft 401 kts 265°
2026-04-13 05:04 53.02614 -29.33446 33573 ft 401 kts 265°
2026-04-13 05:04 53.02273 -29.42686 33577 ft 401 kts 265°
2026-04-13 05:05 53.01926 -29.51919 33572 ft 401 kts 265°
2026-04-13 05:05 53.01574 -29.61150 33572 ft 400 kts 265°
2026-04-13 05:06 53.01221 -29.70323 33574 ft 400 kts 265°
2026-04-13 05:06 53.00860 -29.79592 33570 ft 400 kts 265°
2026-04-13 05:07 53.00495 -29.88731 33583 ft 400 kts 265°
2026-04-13 05:07 53.00121 -29.97954 33563 ft 400 kts 265°
2026-04-13 05:08 52.99839 -30.07184 33563 ft 401 kts 267°
2026-04-13 05:08 52.99801 -30.16445 33561 ft 401 kts 268°
2026-04-13 05:09 52.99751 -30.25707 33560 ft 401 kts 267°
2026-04-13 05:09 52.99670 -30.34960 33576 ft 400 kts 267°
2026-04-13 05:10 52.99575 -30.44200 33566 ft 400 kts 266°
2026-04-13 05:10 52.99473 -30.53428 33564 ft 400 kts 266°
2026-04-13 05:11 52.99362 -30.62654 33563 ft 400 kts 266°
2026-04-13 05:11 52.99240 -30.71871 33561 ft 399 kts 266°
2026-04-13 05:12 52.99111 -30.81088 33560 ft 399 kts 266°
2026-04-13 05:12 52.98976 -30.90291 33557 ft 399 kts 266°
2026-04-13 05:13 52.98832 -30.99514 33547 ft 401 kts 266°
2026-04-13 05:13 52.98679 -31.08758 33547 ft 401 kts 266°
2026-04-13 05:14 52.98520 -31.18015 33559 ft 401 kts 265°
2026-04-13 05:14 52.98354 -31.27269 33562 ft 401 kts 265°
2026-04-13 05:15 52.98181 -31.36526 33545 ft 401 kts 265°
2026-04-13 05:15 52.98001 -31.45787 33555 ft 401 kts 265°
2026-04-13 05:16 52.97815 -31.55035 33560 ft 401 kts 265°
2026-04-13 05:16 52.97619 -31.64275 33556 ft 401 kts 265°
2026-04-13 05:17 52.97417 -31.73514 33539 ft 401 kts 265°
2026-04-13 05:17 52.97209 -31.82737 33541 ft 401 kts 265°
2026-04-13 05:18 52.96993 -31.91979 33528 ft 401 kts 265°
2026-04-13 05:18 52.96770 -32.01221 33537 ft 402 kts 264°
2026-04-13 05:19 52.96540 -32.10499 33539 ft 403 kts 264°
2026-04-13 05:19 52.96300 -32.19784 33540 ft 403 kts 264°
2026-04-13 05:20 52.96054 -32.29071 33540 ft 403 kts 264°
2026-04-13 05:20 52.95800 -32.38362 33543 ft 403 kts 264°
2026-04-13 05:21 52.95540 -32.47652 33547 ft 403 kts 264°
2026-04-13 05:21 52.95272 -32.56945 33540 ft 403 kts 264°
2026-04-13 05:22 52.94997 -32.66226 33535 ft 403 kts 264°
2026-04-13 05:22 52.94714 -32.75515 33528 ft 403 kts 263°
2026-04-13 05:23 52.94426 -32.84738 33532 ft 403 kts 263°
2026-04-13 05:23 52.94130 -32.94017 33534 ft 403 kts 263°
2026-04-13 05:24 52.93826 -33.03298 33525 ft 404 kts 263°
2026-04-13 05:24 52.93513 -33.12623 33521 ft 405 kts 263°
2026-04-13 05:25 52.93193 -33.21956 33518 ft 406 kts 263°
2026-04-13 05:25 52.92865 -33.31295 33525 ft 406 kts 263°
2026-04-13 05:26 52.92529 -33.40646 33520 ft 407 kts 263°
2026-04-13 05:26 52.92185 -33.50006 33513 ft 407 kts 263°
2026-04-13 05:27 52.91835 -33.59357 33511 ft 407 kts 263°
2026-04-13 05:27 52.91477 -33.68710 33515 ft 407 kts 262°
2026-04-13 05:28 52.91112 -33.78065 33504 ft 407 kts 262°
2026-04-13 05:28 52.90740 -33.87417 33491 ft 407 kts 262°
2026-04-13 05:29 52.90361 -33.96708 33512 ft 407 kts 262°
2026-04-13 05:29 52.89970 -34.06126 33530 ft 408 kts 262°
2026-04-13 05:30 52.89572 -34.15537 33493 ft 410 kts 262°
2026-04-13 05:30 52.89169 -34.24898 33498 ft 411 kts 262°
2026-04-13 05:31 52.88757 -34.34334 33496 ft 411 kts 261°
2026-04-13 05:31 52.88335 -34.43792 33490 ft 412 kts 261°
2026-04-13 05:32 52.87904 -34.53251 33498 ft 412 kts 261°
2026-04-13 05:32 52.87468 -34.62688 33488 ft 412 kts 261°
2026-04-13 05:33 52.87022 -34.72166 33490 ft 412 kts 261°
2026-04-13 05:33 52.86569 -34.81625 33481 ft 412 kts 261°
2026-04-13 05:34 52.86109 -34.91084 33501 ft 412 kts 261°
2026-04-13 05:34 52.85642 -35.00545 33482 ft 413 kts 261°
2026-04-13 05:35 52.85165 -35.10013 33476 ft 414 kts 260°
2026-04-13 05:35 52.84678 -35.19533 33458 ft 416 kts 260°
2026-04-13 05:36 52.84182 -35.29086 33467 ft 417 kts 260°
2026-04-13 05:36 52.83679 -35.38644 33472 ft 418 kts 260°
2026-04-13 05:37 52.83167 -35.48216 33480 ft 418 kts 260°
2026-04-13 05:37 52.82646 -35.57802 33461 ft 419 kts 260°
2026-04-13 05:38 52.82116 -35.67406 33462 ft 419 kts 259°
2026-04-13 05:38 52.81583 -35.76937 33461 ft 419 kts 259°
2026-04-13 05:39 52.81038 -35.86528 33462 ft 419 kts 259°
2026-04-13 05:39 52.80485 -35.96125 33451 ft 419 kts 259°
2026-04-13 05:40 52.79925 -36.05707 33464 ft 419 kts 259°
2026-04-13 05:40 52.79354 -36.15332 33438 ft 422 kts 259°
2026-04-13 05:41 52.78772 -36.25004 33430 ft 424 kts 259°
2026-04-13 05:41 52.78183 -36.34691 33437 ft 425 kts 259°
2026-04-13 05:42 52.77583 -36.44400 33437 ft 425 kts 259°
2026-04-13 05:43 52.76669 -36.58974 33442 ft 425 kts 259°
2026-04-13 05:43 52.76049 -36.68692 33430 ft 426 kts 258°
2026-04-13 05:44 52.75420 -36.78417 33435 ft 426 kts 258°
2026-04-13 05:44 52.74783 -36.88141 33425 ft 426 kts 258°
2026-04-13 05:45 52.74138 -36.97856 33433 ft 426 kts 258°
2026-04-13 05:45 52.73485 -37.07578 33425 ft 426 kts 258°
2026-04-13 05:46 52.72825 -37.17278 33420 ft 426 kts 258°
2026-04-13 05:46 52.72270 -37.25366 33413 ft 427 kts 258°
2026-04-13 05:47 52.71591 -37.35109 33418 ft 428 kts 257°
2026-04-13 05:47 52.70905 -37.44847 33418 ft 428 kts 257°
2026-04-13 05:48 52.70211 -37.54593 33411 ft 428 kts 257°
2026-04-13 05:48 52.69508 -37.64341 33411 ft 428 kts 257°
2026-04-13 05:49 52.68798 -37.74083 33414 ft 428 kts 257°
2026-04-13 05:49 52.68079 -37.83831 33391 ft 429 kts 257°
2026-04-13 05:50 52.67350 -37.93597 33388 ft 430 kts 257°
2026-04-13 05:50 52.66612 -38.03380 33403 ft 430 kts 257°
2026-04-13 05:51 52.65871 -38.13085 33430 ft 430 kts 257°
2026-04-13 05:51 52.65111 -38.22917 33397 ft 435 kts 257°
2026-04-13 05:52 52.64339 -38.32836 33395 ft 434 kts 257°
2026-04-13 05:52 52.63567 -38.42630 33394 ft 434 kts 257°
2026-04-13 05:53 52.62782 -38.52475 33388 ft 434 kts 256°
2026-04-13 05:53 52.61988 -38.62321 33393 ft 434 kts 256°
2026-04-13 05:54 52.61187 -38.72161 33384 ft 434 kts 256°
2026-04-13 05:54 52.60378 -38.81992 33387 ft 434 kts 256°
2026-04-13 05:55 52.59559 -38.91831 33369 ft 435 kts 256°
2026-04-13 05:55 52.58730 -39.01692 33382 ft 435 kts 256°
2026-04-13 05:56 52.57893 -39.11556 33376 ft 436 kts 256°
2026-04-13 05:56 52.57045 -39.21436 33386 ft 439 kts 256°
2026-04-13 05:57 52.56180 -39.31404 33377 ft 440 kts 256°
2026-04-13 05:57 52.55311 -39.41358 33379 ft 440 kts 256°
2026-04-13 05:58 52.54430 -39.51329 33379 ft 444 kts 255°
2026-04-13 05:58 52.53538 -39.61346 33366 ft 442 kts 255°
2026-04-13 05:59 52.52645 -39.71337 33363 ft 442 kts 255°
2026-04-13 05:59 52.51746 -39.81321 33361 ft 442 kts 255°
2026-04-13 06:00 52.50838 -39.91295 33358 ft 442 kts 255°
2026-04-13 06:00 52.49894 -40.01241 33381 ft 441 kts 254°
2026-04-13 06:01 52.48772 -40.11185 33369 ft 445 kts 253°
2026-04-13 06:01 52.47742 -40.21142 33375 ft 448 kts 254°
2026-04-13 06:02 52.46692 -40.31245 33356 ft 449 kts 254°
2026-04-13 06:02 52.45628 -40.41331 33357 ft 449 kts 254°
2026-04-13 06:03 52.44552 -40.51409 33357 ft 449 kts 253°
2026-04-13 06:03 52.43462 -40.61501 33351 ft 451 kts 253°
2026-04-13 06:04 52.42356 -40.71614 33342 ft 451 kts 253°
2026-04-13 06:04 52.41239 -40.81731 33354 ft 451 kts 253°
2026-04-13 06:05 52.40112 -40.91848 33343 ft 452 kts 253°
2026-04-13 06:05 52.38977 -41.01961 33356 ft 452 kts 253°
2026-04-13 06:06 52.37834 -41.12062 33376 ft 452 kts 253°
2026-04-13 06:06 52.36674 -41.22225 33365 ft 454 kts 253°
2026-04-13 06:07 52.35497 -41.32443 33339 ft 459 kts 253°
2026-04-13 06:07 52.34311 -41.42689 33344 ft 458 kts 253°
2026-04-13 06:08 52.33117 -41.52919 33342 ft 458 kts 253°
2026-04-13 06:08 52.31913 -41.63142 33337 ft 458 kts 253°
2026-04-13 06:09 52.30693 -41.73406 33335 ft 461 kts 253°
2026-04-13 06:09 52.29462 -41.83697 33353 ft 463 kts 253°
2026-04-13 06:10 52.28223 -41.93986 33337 ft 460 kts 253°
2026-04-13 06:10 52.26977 -42.04239 33334 ft 460 kts 253°
2026-04-13 06:11 52.25722 -42.14482 33335 ft 460 kts 252°
2026-04-13 06:11 52.24462 -42.24683 33357 ft 464 kts 253°
2026-04-13 06:12 52.23173 -42.35041 33337 ft 466 kts 253°
2026-04-13 06:12 52.21877 -42.45403 33328 ft 466 kts 252°
2026-04-13 06:13 52.20572 -42.55749 33324 ft 466 kts 252°
2026-04-13 06:13 52.19258 -42.66081 33323 ft 466 kts 252°
2026-04-13 06:14 52.17932 -42.76419 33315 ft 467 kts 253°
2026-04-13 06:14 52.15923 -42.91943 33313 ft 467 kts 253°
2026-04-13 06:15 52.14572 -43.02295 33313 ft 468 kts 252°
2026-04-13 06:15 52.13211 -43.12653 33323 ft 468 kts 252°
2026-04-13 06:16 52.11841 -43.23004 33323 ft 468 kts 252°
2026-04-13 06:16 52.10454 -43.33377 33301 ft 470 kts 253°
2026-04-13 06:17 52.09057 -43.43774 33316 ft 471 kts 253°
2026-04-13 06:17 52.07650 -43.54180 33331 ft 471 kts 253°
2026-04-13 06:18 52.06234 -43.64574 33330 ft 471 kts 253°
2026-04-13 06:18 52.04806 -43.74978 33326 ft 471 kts 253°
2026-04-13 06:19 52.03371 -43.85362 33325 ft 472 kts 253°
2026-04-13 06:19 52.01924 -43.95758 33328 ft 472 kts 252°
2026-04-13 06:20 52.00470 -44.06135 33330 ft 472 kts 252°
2026-04-13 06:20 51.99015 -44.16447 33331 ft 472 kts 252°
2026-04-13 06:21 51.97532 -44.26888 33356 ft 472 kts 252°
2026-04-13 06:21 51.96056 -44.37192 33334 ft 473 kts 253°
2026-04-13 06:22 51.94559 -44.47591 33336 ft 474 kts 253°
2026-04-13 06:22 51.93052 -44.57991 33338 ft 474 kts 253°
2026-04-13 06:23 51.91535 -44.68384 33358 ft 475 kts 253°
2026-04-13 06:23 51.90006 -44.78783 33360 ft 475 kts 253°
2026-04-13 06:24 51.88469 -44.89179 33368 ft 475 kts 253°
2026-04-13 06:24 51.86921 -44.99570 33361 ft 475 kts 253°
2026-04-13 06:25 51.85363 -45.09955 33369 ft 475 kts 252°
2026-04-13 06:25 51.83798 -45.20328 33362 ft 475 kts 252°
2026-04-13 06:26 51.82226 -45.30698 33369 ft 475 kts 253°
2026-04-13 06:26 51.80642 -45.41057 33388 ft 475 kts 252°
2026-04-13 06:27 51.79046 -45.51421 33388 ft 476 kts 253°
2026-04-13 06:27 51.77440 -45.61779 33383 ft 476 kts 253°
2026-04-13 06:28 51.75826 -45.72145 33389 ft 476 kts 252°
2026-04-13 06:28 51.74205 -45.82492 33402 ft 476 kts 252°
2026-04-13 06:29 51.72573 -45.92835 33420 ft 476 kts 253°
2026-04-13 06:29 51.70926 -46.03179 33405 ft 476 kts 253°
2026-04-13 06:30 51.69274 -46.13507 33414 ft 475 kts 253°
2026-04-13 06:30 51.67623 -46.23816 33429 ft 475 kts 253°
2026-04-13 06:31 51.65963 -46.34055 33437 ft 475 kts 253°
2026-04-13 06:31 51.64288 -46.44345 33436 ft 475 kts 253°
2026-04-13 06:32 51.62605 -46.54623 33436 ft 475 kts 254°
2026-04-13 06:32 51.60913 -46.64905 33468 ft 475 kts 253°
2026-04-13 06:33 51.59210 -46.75173 33462 ft 475 kts 253°
2026-04-13 06:33 51.57497 -46.85443 33456 ft 475 kts 253°
2026-04-13 06:34 51.55779 -46.95688 33472 ft 475 kts 254°
2026-04-13 06:34 51.54048 -47.05941 33489 ft 475 kts 254°
2026-04-13 06:35 51.52601 -47.14470 33492 ft 476 kts 254°
2026-04-13 06:35 51.50854 -47.24715 33478 ft 476 kts 254°
2026-04-13 06:36 51.49098 -47.34952 33492 ft 476 kts 254°
2026-04-13 06:36 51.47333 -47.45181 33517 ft 476 kts 253°
2026-04-13 06:37 51.45556 -47.55402 33514 ft 476 kts 254°
2026-04-13 06:37 51.43775 -47.65611 33511 ft 475 kts 254°
2026-04-13 06:38 51.41986 -47.75801 33524 ft 475 kts 254°
2026-04-13 06:38 51.40189 -47.85979 33516 ft 475 kts 254°
2026-04-13 06:39 51.38382 -47.96154 33532 ft 475 kts 254°
2026-04-13 06:39 51.36563 -48.06330 33529 ft 475 kts 254°
2026-04-13 06:40 51.34745 -48.16459 33535 ft 475 kts 254°
2026-04-13 06:40 51.32912 -48.26604 33551 ft 474 kts 254°
2026-04-13 06:41 51.31071 -48.36743 33557 ft 474 kts 254°
2026-04-13 06:41 51.29221 -48.46874 33560 ft 475 kts 254°
2026-04-13 06:42 51.27366 -48.56963 33582 ft 473 kts 255°
2026-04-13 06:43 51.24589 -48.71987 33581 ft 474 kts 255°
2026-04-13 06:43 51.22721 -48.82028 33583 ft 473 kts 255°
2026-04-13 06:44 51.20839 -48.92079 33595 ft 473 kts 254°
2026-04-13 06:44 51.18949 -49.02119 33609 ft 472 kts 255°
2026-04-13 06:45 51.17050 -49.12151 33617 ft 472 kts 255°
2026-04-13 06:45 51.15146 -49.22159 33615 ft 473 kts 255°
2026-04-13 06:46 51.13235 -49.32156 33630 ft 473 kts 254°
2026-04-13 06:46 51.11315 -49.42150 33638 ft 472 kts 254°
2026-04-13 06:47 51.09386 -49.52119 33647 ft 468 kts 255°
2026-04-13 06:47 51.07467 -49.62011 33653 ft 469 kts 255°
2026-04-13 06:48 51.05542 -49.71918 33673 ft 470 kts 255°
2026-04-13 06:48 51.03608 -49.81816 33676 ft 471 kts 254°
2026-04-13 06:49 51.01661 -49.91716 33690 ft 468 kts 254°
2026-04-13 06:49 50.99639 -50.01563 33683 ft 468 kts 252°
2026-04-13 06:50 50.97276 -50.11184 33722 ft 469 kts 252°
2026-04-13 06:50 50.94964 -50.20879 33715 ft 470 kts 252°
2026-04-13 06:51 50.92646 -50.30531 33735 ft 469 kts 252°
2026-04-13 06:51 50.90317 -50.40169 33724 ft 469 kts 251°
2026-04-13 06:52 50.87964 -50.49794 33756 ft 466 kts 252°
2026-04-13 06:52 50.85626 -50.59349 33755 ft 465 kts 252°
2026-04-13 06:53 50.83270 -50.68916 33767 ft 466 kts 251°
2026-04-13 06:53 50.80910 -50.78480 33771 ft 467 kts 252°
2026-04-13 06:54 50.78537 -50.88047 33778 ft 469 kts 251°
2026-04-13 06:54 50.76165 -50.97540 33794 ft 461 kts 252°
2026-04-13 06:55 50.73814 -51.06964 33804 ft 462 kts 251°
2026-04-13 06:55 50.71442 -51.16390 33808 ft 460 kts 252°
2026-04-13 06:56 50.69092 -51.25708 33810 ft 459 kts 252°
2026-04-13 06:56 50.66723 -51.35070 33833 ft 460 kts 253°
2026-04-13 06:57 50.64351 -51.44417 33837 ft 461 kts 253°
2026-04-13 06:57 50.61958 -51.53770 33857 ft 461 kts 252°
2026-04-13 06:58 50.59559 -51.63098 33850 ft 460 kts 251°
2026-04-13 06:58 50.57154 -51.72430 33863 ft 459 kts 251°
2026-04-13 06:59 50.54743 -51.81760 33861 ft 461 kts 252°
2026-04-13 06:59 50.52319 -51.91099 33894 ft 460 kts 252°
2026-04-13 07:00 50.49342 -52.00067 33896 ft 468 kts 242°
2026-04-13 07:00 50.45205 -52.08022 33904 ft 475 kts 231°
2026-04-13 07:01 50.40644 -52.15509 33894 ft 474 kts 231°
2026-04-13 07:01 50.36098 -52.23037 33912 ft 476 kts 231°
2026-04-13 07:02 50.31545 -52.30548 33924 ft 476 kts 231°
2026-04-13 07:02 50.24685 -52.41816 33942 ft 477 kts 231°
2026-04-13 07:03 50.20105 -52.49313 33936 ft 477 kts 231°
2026-04-13 07:03 50.15523 -52.56790 33943 ft 478 kts 231°
2026-04-13 07:04 50.10917 -52.64281 33977 ft 478 kts 231°
2026-04-13 07:04 50.06316 -52.71745 33986 ft 478 kts 231°
2026-04-13 07:05 50.01736 -52.79149 33981 ft 477 kts 231°
2026-04-13 07:05 49.97129 -52.86579 33981 ft 477 kts 231°
2026-04-13 07:06 49.92517 -52.93994 33972 ft 477 kts 231°
2026-04-13 07:06 49.87899 -53.01397 33987 ft 477 kts 231°
2026-04-13 07:07 49.83279 -53.08781 33998 ft 477 kts 231°
2026-04-13 07:07 49.78654 -53.16153 33998 ft 477 kts 231°
2026-04-13 07:08 49.74029 -53.23501 34004 ft 477 kts 231°
2026-04-13 07:08 49.69394 -53.30845 33990 ft 477 kts 231°
2026-04-13 07:09 49.64768 -53.38151 34014 ft 476 kts 231°
2026-04-13 07:09 49.60130 -53.45460 34025 ft 476 kts 231°
2026-04-13 07:10 49.55491 -53.52746 34039 ft 476 kts 231°
2026-04-13 07:10 49.50846 -53.60017 34023 ft 476 kts 232°
2026-04-13 07:11 49.46197 -53.67274 34036 ft 477 kts 232°
2026-04-13 07:11 49.41539 -53.74532 34046 ft 477 kts 232°
2026-04-13 07:12 49.36869 -53.81785 34068 ft 478 kts 232°
2026-04-13 07:12 49.32187 -53.89028 34052 ft 478 kts 232°
2026-04-13 07:13 49.27500 -53.96266 34061 ft 478 kts 232°
2026-04-13 07:13 49.22810 -54.03489 34063 ft 479 kts 232°
2026-04-13 07:14 49.18117 -54.10692 34071 ft 479 kts 232°
2026-04-13 07:14 49.13413 -54.17886 34072 ft 479 kts 232°
2026-04-13 07:15 49.08703 -54.25078 34077 ft 479 kts 232°
2026-04-13 07:15 49.04015 -54.32216 34084 ft 479 kts 232°
2026-04-13 07:16 48.99287 -54.39391 34054 ft 480 kts 233°
2026-04-13 07:16 48.94555 -54.46551 34087 ft 480 kts 233°
2026-04-13 07:17 48.89842 -54.53726 34085 ft 477 kts 236°
2026-04-13 07:17 48.85650 -54.61441 34094 ft 473 kts 239°
2026-04-13 07:18 48.81521 -54.69197 34100 ft 472 kts 240°
2026-04-13 07:18 48.77382 -54.76949 34100 ft 473 kts 240°
2026-04-13 07:19 48.73234 -54.84686 34107 ft 473 kts 239°
2026-04-13 07:19 48.69076 -54.92419 34113 ft 473 kts 239°
2026-04-13 07:20 48.64916 -55.00124 34105 ft 473 kts 240°
2026-04-13 07:20 48.60753 -55.07823 34119 ft 473 kts 240°
2026-04-13 07:21 48.56578 -55.15519 34116 ft 474 kts 240°
2026-04-13 07:21 48.52389 -55.23206 34124 ft 474 kts 240°
2026-04-13 07:22 48.48908 -55.29565 34124 ft 473 kts 240°
2026-04-13 07:22 48.44726 -55.37197 34125 ft 472 kts 240°
2026-04-13 07:23 48.40537 -55.44823 34148 ft 472 kts 240°
2026-04-13 07:23 48.36342 -55.52435 34149 ft 472 kts 240°
2026-04-13 07:24 48.32146 -55.60023 34137 ft 471 kts 241°
2026-04-13 07:24 48.27954 -55.67587 34138 ft 471 kts 241°
2026-04-13 07:25 48.23760 -55.75133 34138 ft 471 kts 241°
2026-04-13 07:25 48.19561 -55.82666 34134 ft 471 kts 241°
2026-04-13 07:26 48.15358 -55.90184 34137 ft 471 kts 241°
2026-04-13 07:26 48.11176 -55.97643 34135 ft 471 kts 241°
2026-04-13 07:27 48.06965 -56.05134 34135 ft 471 kts 240°
2026-04-13 07:27 48.02746 -56.12619 34094 ft 471 kts 241°
2026-04-13 07:28 47.98533 -56.20065 34151 ft 469 kts 241°
2026-04-13 07:28 47.94322 -56.27498 34149 ft 469 kts 241°
2026-04-13 07:29 47.90104 -56.34919 34163 ft 469 kts 241°
2026-04-13 07:29 47.85884 -56.42319 34160 ft 467 kts 241°
2026-04-13 07:30 47.81673 -56.49684 34181 ft 467 kts 242°
2026-04-13 07:30 47.77459 -56.57042 34162 ft 467 kts 242°
2026-04-13 07:31 47.73239 -56.64383 34195 ft 467 kts 242°
2026-04-13 07:31 47.69013 -56.71717 34194 ft 467 kts 242°
2026-04-13 07:32 47.64783 -56.79041 34228 ft 468 kts 242°
2026-04-13 07:32 47.60538 -56.86372 34239 ft 469 kts 242°
2026-04-13 07:33 47.56276 -56.93702 34248 ft 469 kts 242°
2026-04-13 07:34 47.49877 -57.04677 34267 ft 470 kts 242°
2026-04-13 07:34 47.45600 -57.11989 34273 ft 471 kts 242°
2026-04-13 07:35 47.41336 -57.19259 34276 ft 471 kts 242°
2026-04-13 07:35 47.37038 -57.26562 34259 ft 471 kts 242°
2026-04-13 07:36 47.32735 -57.33861 34273 ft 472 kts 242°
2026-04-13 07:36 47.28418 -57.41164 34279 ft 473 kts 242°
2026-04-13 07:37 47.24088 -57.48465 34285 ft 474 kts 242°
2026-04-13 07:37 47.19752 -57.55755 34276 ft 473 kts 242°
2026-04-13 07:38 47.15408 -57.63043 34286 ft 474 kts 242°
2026-04-13 07:38 47.11052 -57.70332 34292 ft 475 kts 242°
2026-04-13 07:39 47.06685 -57.77617 34269 ft 475 kts 242°
2026-04-13 07:39 47.02316 -57.84884 34296 ft 475 kts 242°
2026-04-13 07:40 46.97938 -57.92151 34301 ft 476 kts 242°
2026-04-13 07:40 46.93551 -57.99410 34310 ft 476 kts 242°
2026-04-13 07:41 46.89163 -58.06651 34279 ft 476 kts 242°
2026-04-13 07:41 46.84769 -58.13886 34304 ft 476 kts 242°
2026-04-13 07:42 46.80364 -58.21119 34317 ft 477 kts 242°
2026-04-13 07:42 46.75946 -58.28353 34319 ft 478 kts 241°
2026-04-13 07:43 46.71526 -58.35568 34311 ft 477 kts 241°
2026-04-13 07:43 46.67092 -58.42791 34318 ft 478 kts 241°
2026-04-13 07:44 46.62654 -58.50001 34322 ft 479 kts 241°
2026-04-13 07:44 46.58202 -58.57213 34326 ft 479 kts 241°
2026-04-13 07:45 46.53767 -58.64381 34328 ft 482 kts 241°
2026-04-13 07:45 46.49281 -58.71610 34333 ft 482 kts 241°
2026-04-13 07:46 46.44788 -58.78829 34332 ft 482 kts 241°
2026-04-13 07:46 46.40289 -58.86045 34346 ft 484 kts 241°
2026-04-13 07:47 46.35772 -58.93263 34328 ft 483 kts 241°
2026-04-13 07:47 46.31256 -59.00461 34322 ft 483 kts 241°
2026-04-13 07:48 46.26739 -59.07646 34326 ft 482 kts 240°
2026-04-13 07:48 46.22221 -59.14815 34332 ft 483 kts 240°
2026-04-13 07:49 46.17688 -59.21985 34337 ft 484 kts 240°
2026-04-13 07:49 46.13147 -59.29149 34340 ft 484 kts 240°
2026-04-13 07:50 46.08603 -59.36301 34352 ft 484 kts 240°
2026-04-13 07:50 46.04050 -59.43446 34350 ft 485 kts 240°
2026-04-13 07:51 45.99486 -59.50588 34358 ft 485 kts 240°
2026-04-13 07:51 45.94947 -59.57677 34363 ft 484 kts 239°
2026-04-13 07:52 45.90376 -59.64795 34361 ft 484 kts 239°
2026-04-13 07:52 45.85803 -59.71895 34370 ft 485 kts 239°
2026-04-13 07:53 45.81219 -59.78995 34314 ft 485 kts 239°
2026-04-13 07:53 45.76647 -59.86063 34371 ft 483 kts 239°
2026-04-13 07:54 45.72068 -59.93118 34377 ft 483 kts 239°
2026-04-13 07:54 45.67488 -60.00156 34382 ft 484 kts 239°
2026-04-13 07:55 45.62906 -60.07185 34364 ft 483 kts 238°
2026-04-13 07:55 45.58323 -60.14191 34378 ft 483 kts 238°
2026-04-13 07:56 45.53733 -60.21187 34402 ft 482 kts 238°
2026-04-13 07:56 45.49141 -60.28174 34372 ft 482 kts 238°
2026-04-13 07:57 45.44561 -60.35124 34387 ft 481 kts 238°
2026-04-13 07:57 45.39974 -60.42065 34384 ft 481 kts 238°
2026-04-13 07:58 45.35388 -60.48991 34391 ft 480 kts 237°
2026-04-13 07:58 45.30847 -60.55827 34402 ft 478 kts 237°
2026-04-13 07:59 45.26253 -60.62727 34375 ft 477 kts 237°
2026-04-13 07:59 45.21688 -60.69567 34377 ft 477 kts 237°
2026-04-13 08:00 45.17155 -60.76344 34397 ft 475 kts 237°
2026-04-13 08:00 45.12602 -60.83130 34396 ft 475 kts 237°
2026-04-13 08:01 45.08051 -60.89899 34393 ft 475 kts 237°
2026-04-13 08:01 45.03493 -60.96661 34395 ft 475 kts 237°
2026-04-13 08:02 44.98931 -61.03412 34396 ft 475 kts 237°
2026-04-13 08:02 44.94368 -61.10149 34396 ft 475 kts 237°
2026-04-13 08:03 44.89795 -61.16882 34397 ft 475 kts 236°
2026-04-13 08:03 44.85223 -61.23598 34408 ft 474 kts 236°
2026-04-13 08:04 44.80659 -61.30286 34407 ft 473 kts 236°
2026-04-13 08:04 44.76093 -61.36961 34406 ft 473 kts 236°
2026-04-13 08:05 44.71523 -61.43626 34384 ft 473 kts 236°
2026-04-13 08:05 44.66959 -61.50264 34416 ft 472 kts 236°
2026-04-13 08:06 44.62399 -61.56883 34410 ft 472 kts 236°
2026-04-13 08:06 44.57843 -61.63479 34409 ft 472 kts 236°
2026-04-13 08:07 44.53258 -61.70101 34408 ft 471 kts 235°
2026-04-13 08:07 44.48687 -61.76687 34411 ft 472 kts 235°
2026-04-13 08:08 44.44107 -61.83270 34410 ft 472 kts 235°
2026-04-13 08:08 44.39555 -61.89792 34406 ft 471 kts 236°
2026-04-13 08:09 44.34978 -61.96340 34406 ft 472 kts 236°
2026-04-13 08:09 44.30382 -62.02902 34409 ft 472 kts 236°
2026-04-13 08:10 44.25783 -62.09449 34385 ft 472 kts 236°
2026-04-13 08:10 44.21179 -62.15983 34410 ft 472 kts 236°
2026-04-13 08:11 44.16570 -62.22507 34404 ft 472 kts 236°
2026-04-13 08:11 44.11959 -62.29025 34408 ft 473 kts 236°
2026-04-13 08:12 44.05022 -62.38802 34405 ft 474 kts 237°
2026-04-13 08:12 44.01175 -62.44212 34410 ft 474 kts 237°
2026-04-13 08:13 43.96532 -62.50724 34412 ft 475 kts 237°
2026-04-13 08:13 43.91888 -62.57211 34422 ft 473 kts 237°
2026-04-13 08:14 43.87250 -62.63689 34420 ft 473 kts 237°
2026-04-13 08:14 43.82607 -62.70158 34422 ft 473 kts 237°
2026-04-13 08:15 43.77970 -62.76598 34417 ft 469 kts 237°
2026-04-13 08:15 43.73364 -62.82984 34425 ft 470 kts 237°
2026-04-13 08:16 43.68746 -62.89375 34428 ft 470 kts 237°
2026-04-13 08:16 43.64125 -62.95751 34407 ft 468 kts 237°
2026-04-13 08:17 43.59527 -63.02078 34427 ft 467 kts 237°
2026-04-13 08:17 43.54949 -63.08369 34429 ft 468 kts 237°
2026-04-13 08:18 43.50336 -63.14690 34417 ft 468 kts 237°
2026-04-13 08:18 43.45718 -63.21004 34424 ft 468 kts 237°
2026-04-13 08:19 43.41094 -63.27312 34452 ft 468 kts 236°
2026-04-13 08:19 43.36466 -63.33611 34448 ft 468 kts 236°
2026-04-13 08:20 43.31842 -63.39889 34439 ft 467 kts 236°
2026-04-13 08:20 43.27218 -63.46154 34435 ft 467 kts 236°
2026-04-13 08:21 43.22589 -63.52412 34433 ft 467 kts 236°
2026-04-13 08:21 43.17967 -63.58648 34428 ft 466 kts 236°
2026-04-13 08:22 43.13347 -63.64864 34433 ft 465 kts 236°
2026-04-13 08:22 43.08726 -63.71070 34437 ft 465 kts 236°
2026-04-13 08:23 43.04107 -63.77264 34426 ft 464 kts 235°
2026-04-13 08:23 42.99487 -63.83449 34451 ft 465 kts 234°
2026-04-13 08:24 42.94861 -63.89617 34426 ft 465 kts 234°
2026-04-13 08:24 42.90231 -63.95779 34409 ft 465 kts 234°
2026-04-13 08:25 42.85595 -64.01946 34438 ft 466 kts 233°
2026-04-13 08:25 42.80945 -64.08110 34440 ft 467 kts 233°
2026-04-13 08:26 42.76320 -64.14231 34440 ft 467 kts 233°
2026-04-13 08:26 42.71658 -64.20395 34434 ft 468 kts 233°
2026-04-13 08:27 42.66977 -64.26562 34445 ft 469 kts 232°
2026-04-13 08:27 42.62284 -64.32731 34454 ft 470 kts 232°
2026-04-13 08:28 42.57304 -64.38583 34441 ft 479 kts 225°
2026-04-13 08:28 42.51621 -64.43494 34451 ft 491 kts 216°
2026-04-13 08:29 42.45634 -64.47952 34452 ft 490 kts 217°
2026-04-13 08:29 42.39676 -64.52457 34450 ft 491 kts 218°
2026-04-13 08:30 42.33703 -64.56964 34461 ft 492 kts 218°
2026-04-13 08:30 42.27718 -64.61463 34449 ft 493 kts 218°
2026-04-13 08:31 42.21722 -64.65958 34462 ft 494 kts 218°
2026-04-13 08:31 42.15712 -64.70454 34467 ft 494 kts 218°
2026-04-13 08:32 42.09692 -64.74948 34458 ft 495 kts 218°
2026-04-13 08:32 42.03656 -64.79445 34467 ft 496 kts 218°
2026-04-13 08:33 41.97611 -64.83938 34468 ft 497 kts 218°
2026-04-13 08:33 41.91514 -64.88351 34472 ft 502 kts 213°
2026-04-13 08:34 41.85054 -64.92044 34472 ft 505 kts 211°
2026-04-13 08:34 41.78586 -64.95724 34455 ft 505 kts 211°
2026-04-13 08:35 41.72160 -64.99391 34473 ft 505 kts 211°
2026-04-13 08:35 41.65687 -65.03075 34478 ft 506 kts 211°
2026-04-13 08:36 41.59220 -65.06746 34472 ft 505 kts 211°
2026-04-13 08:36 41.52747 -65.10412 34482 ft 505 kts 211°
2026-04-13 08:37 41.46276 -65.14069 34478 ft 505 kts 211°
2026-04-13 08:37 41.39806 -65.17717 34479 ft 504 kts 211°
2026-04-13 08:38 41.33340 -65.21355 34479 ft 505 kts 211°
2026-04-13 08:38 41.26871 -65.24988 34454 ft 504 kts 211°
2026-04-13 08:39 41.20406 -65.28610 34472 ft 504 kts 211°
2026-04-13 08:39 41.13937 -65.32226 34478 ft 505 kts 211°
2026-04-13 08:40 41.07461 -65.35840 34479 ft 505 kts 211°
2026-04-13 08:40 41.00976 -65.39450 34467 ft 506 kts 211°
2026-04-13 08:41 40.94482 -65.43057 34479 ft 506 kts 211°
2026-04-13 08:41 40.87975 -65.46664 34470 ft 507 kts 210°
2026-04-13 08:42 40.81468 -65.50263 34475 ft 508 kts 210°
2026-04-13 08:42 40.74945 -65.53863 34456 ft 508 kts 210°
2026-04-13 08:43 40.68415 -65.57460 34476 ft 509 kts 210°
2026-04-13 08:43 40.61878 -65.61051 34484 ft 509 kts 210°
2026-04-13 08:44 40.55384 -65.64612 34474 ft 509 kts 210°
2026-04-13 08:44 40.48845 -65.68191 34478 ft 509 kts 210°
2026-04-13 08:45 40.42300 -65.71765 34479 ft 509 kts 210°
2026-04-13 08:45 40.35760 -65.75329 34471 ft 509 kts 210°
2026-04-13 08:46 40.29216 -65.78888 34474 ft 509 kts 210°
2026-04-13 08:46 40.22667 -65.82441 34475 ft 510 kts 210°
2026-04-13 08:47 40.16115 -65.85989 34476 ft 510 kts 210°
2026-04-13 08:47 40.09560 -65.89531 34470 ft 510 kts 210°
2026-04-13 08:48 40.03004 -65.93066 34451 ft 510 kts 210°
2026-04-13 08:48 39.96457 -65.96590 34466 ft 509 kts 210°
2026-04-13 08:49 39.89902 -66.00110 34467 ft 509 kts 209°
2026-04-13 08:49 39.83346 -66.03623 34464 ft 509 kts 209°
2026-04-13 08:50 39.76796 -66.07127 34467 ft 509 kts 209°
2026-04-13 08:50 39.70237 -66.10628 34467 ft 510 kts 209°
2026-04-13 08:51 39.63676 -66.14123 34475 ft 510 kts 209°
2026-04-13 08:51 39.57103 -66.17617 34457 ft 511 kts 209°
2026-04-13 08:52 39.50529 -66.21104 34458 ft 511 kts 209°
2026-04-13 08:52 39.43949 -66.24588 34472 ft 511 kts 209°
2026-04-13 08:53 39.37358 -66.28069 34457 ft 512 kts 208°
2026-04-13 08:53 39.30754 -66.31550 34461 ft 513 kts 208°
2026-04-13 08:54 39.24148 -66.35026 34460 ft 513 kts 208°
2026-04-13 08:54 39.17525 -66.38502 34460 ft 514 kts 208°
2026-04-13 08:55 39.10890 -66.41979 34464 ft 515 kts 208°
2026-04-13 08:55 39.04255 -66.45448 34463 ft 515 kts 208°
2026-04-13 08:56 38.97609 -66.48916 34464 ft 516 kts 208°
2026-04-13 08:56 38.90998 -66.52358 34466 ft 516 kts 208°
2026-04-13 08:57 38.84303 -66.55838 34463 ft 516 kts 208°
2026-04-13 08:57 38.77678 -66.59272 34452 ft 517 kts 208°
2026-04-13 08:58 38.71000 -66.62732 34444 ft 518 kts 208°
2026-04-13 08:58 38.64267 -66.66214 34463 ft 519 kts 208°
2026-04-13 08:59 38.57835 -66.70125 34474 ft 514 kts 213°
2026-04-13 08:59 38.51428 -66.74229 34448 ft 515 kts 212°
2026-04-13 09:00 38.45017 -66.78311 34466 ft 515 kts 212°
2026-04-13 09:00 38.38600 -66.82377 34469 ft 515 kts 212°
2026-04-13 09:01 38.33215 -66.85783 34471 ft 515 kts 212°
2026-04-13 09:01 38.26787 -66.89839 34462 ft 516 kts 212°
2026-04-13 09:02 38.20350 -66.93892 34456 ft 517 kts 212°
2026-04-13 09:02 38.13951 -66.97912 34452 ft 517 kts 212°
2026-04-13 09:03 38.07495 -67.01960 34464 ft 518 kts 212°
2026-04-13 09:04 37.97799 -67.08024 34468 ft 518 kts 212°
2026-04-13 09:04 37.91336 -67.12057 34470 ft 518 kts 212°
2026-04-13 09:05 37.84870 -67.16082 34463 ft 518 kts 212°
2026-04-13 09:05 37.78410 -67.20096 34466 ft 518 kts 212°
2026-04-13 09:06 37.71939 -67.24110 34457 ft 518 kts 212°
2026-04-13 09:06 37.65476 -67.28111 34462 ft 518 kts 212°
2026-04-13 09:07 37.58987 -67.32120 34463 ft 519 kts 212°
2026-04-13 09:07 37.52499 -67.36122 34459 ft 519 kts 211°
2026-04-13 09:08 37.46009 -67.40116 34463 ft 519 kts 211°
2026-04-13 09:08 37.39516 -67.44103 34463 ft 519 kts 211°
2026-04-13 09:09 37.33025 -67.48084 34455 ft 520 kts 211°
2026-04-13 09:09 37.26517 -67.52065 34459 ft 520 kts 211°
2026-04-13 09:10 37.20012 -67.56036 34458 ft 520 kts 211°
2026-04-13 09:10 37.13495 -67.60010 34447 ft 521 kts 211°
2026-04-13 09:11 37.07019 -67.63950 34455 ft 521 kts 211°
2026-04-13 09:11 37.00494 -67.67910 34459 ft 522 kts 211°
2026-04-13 09:12 36.93961 -67.71871 34461 ft 522 kts 211°
2026-04-13 09:12 36.87427 -67.75823 34457 ft 522 kts 210°
2026-04-13 09:13 36.80882 -67.79772 34460 ft 522 kts 210°
2026-04-13 09:13 36.74339 -67.83715 34465 ft 522 kts 210°
2026-04-13 09:14 36.67797 -67.87649 34467 ft 522 kts 210°
2026-04-13 09:14 36.61254 -67.91576 34457 ft 522 kts 210°
2026-04-13 09:15 36.54705 -67.95500 34435 ft 522 kts 210°
2026-04-13 09:15 36.48163 -67.99412 34458 ft 522 kts 210°
2026-04-13 09:16 36.41609 -68.03323 34465 ft 522 kts 210°
2026-04-13 09:16 36.35052 -68.07229 34463 ft 522 kts 210°
2026-04-13 09:17 36.28503 -68.11123 34458 ft 522 kts 210°
2026-04-13 09:17 36.21944 -68.15015 34456 ft 522 kts 210°
2026-04-13 09:18 36.15389 -68.18898 34457 ft 522 kts 210°
2026-04-13 09:18 36.08827 -68.22779 34451 ft 523 kts 210°
2026-04-13 09:19 36.02262 -68.26653 34449 ft 523 kts 210°
2026-04-13 09:19 35.95693 -68.30523 34451 ft 523 kts 210°
2026-04-13 09:20 35.89116 -68.34391 34442 ft 524 kts 209°
2026-04-13 09:20 35.82527 -68.38257 34445 ft 524 kts 209°
2026-04-13 09:21 35.75939 -68.42116 34450 ft 524 kts 209°
2026-04-13 09:21 35.69345 -68.45973 34440 ft 525 kts 209°
2026-04-13 09:22 35.62750 -68.49822 34445 ft 525 kts 208°
2026-04-13 09:22 35.56137 -68.53674 34438 ft 526 kts 209°
2026-04-13 09:23 35.49530 -68.57517 34441 ft 526 kts 208°
2026-04-13 09:23 35.42908 -68.61362 34444 ft 527 kts 208°
2026-04-13 09:24 35.36283 -68.65200 34441 ft 527 kts 208°
2026-04-13 09:24 35.29652 -68.69034 34438 ft 527 kts 208°
2026-04-13 09:25 35.23010 -68.72870 34444 ft 528 kts 208°
2026-04-13 09:25 35.16372 -68.76694 34447 ft 528 kts 208°
2026-04-13 09:26 35.09727 -68.80516 34444 ft 528 kts 208°
2026-04-13 09:26 35.03073 -68.84337 34443 ft 528 kts 208°
2026-04-13 09:27 34.96466 -68.88124 34438 ft 528 kts 208°
2026-04-13 09:27 34.89814 -68.91929 34438 ft 529 kts 208°
2026-04-13 09:28 34.83148 -68.95736 34434 ft 529 kts 207°
2026-04-13 09:28 34.76480 -68.99537 34433 ft 529 kts 207°
2026-04-13 09:29 34.69804 -69.03336 34435 ft 530 kts 207°
2026-04-13 09:29 34.63125 -69.07130 34438 ft 530 kts 207°
2026-04-13 09:30 34.56451 -69.10914 34435 ft 530 kts 207°
2026-04-13 09:30 34.49769 -69.14695 34435 ft 530 kts 207°
2026-04-13 09:31 34.43080 -69.18474 34436 ft 530 kts 207°
2026-04-13 09:31 34.36392 -69.22247 34440 ft 531 kts 207°
2026-04-13 09:32 34.29694 -69.26018 34422 ft 531 kts 207°
2026-04-13 09:32 34.22989 -69.29785 34418 ft 532 kts 207°
2026-04-13 09:33 34.16279 -69.33550 34430 ft 532 kts 207°
2026-04-13 09:33 34.09569 -69.37308 34436 ft 532 kts 207°
2026-04-13 09:34 33.99494 -69.42937 34429 ft 532 kts 207°
2026-04-13 09:34 33.92780 -69.46681 34413 ft 532 kts 207°
2026-04-13 09:35 33.86057 -69.50423 34425 ft 532 kts 206°
2026-04-13 09:35 33.79335 -69.54157 34416 ft 532 kts 206°
2026-04-13 09:36 33.72601 -69.57893 34409 ft 533 kts 206°
2026-04-13 09:36 33.65862 -69.61624 34419 ft 534 kts 206°
2026-04-13 09:37 33.59119 -69.65351 34419 ft 534 kts 206°
2026-04-13 09:37 33.52412 -69.69052 34419 ft 534 kts 206°
2026-04-13 09:38 33.45659 -69.72774 34413 ft 535 kts 206°
2026-04-13 09:38 33.38901 -69.76494 34419 ft 535 kts 206°
2026-04-13 09:39 33.32122 -69.80171 34416 ft 535 kts 203°
2026-04-13 09:39 33.24983 -69.82719 34419 ft 536 kts 192°
2026-04-13 09:40 33.17706 -69.84645 34414 ft 536 kts 192°
2026-04-13 09:40 33.10429 -69.86619 34393 ft 536 kts 192°
2026-04-13 09:41 33.03149 -69.88596 34403 ft 537 kts 192°
2026-04-13 09:42 32.92216 -69.91552 34406 ft 537 kts 192°
2026-04-13 09:42 32.84926 -69.93519 34399 ft 537 kts 192°
2026-04-13 09:43 32.77677 -69.95471 34402 ft 538 kts 192°
2026-04-13 09:43 32.70373 -69.97434 34405 ft 538 kts 192°
2026-04-13 09:44 32.63070 -69.99394 34400 ft 538 kts 192°
2026-04-13 09:44 32.55763 -70.01352 34402 ft 538 kts 192°
2026-04-13 09:45 32.48459 -70.03306 34402 ft 538 kts 192°
2026-04-13 09:45 32.41148 -70.05258 34403 ft 538 kts 192°
2026-04-13 09:46 32.33845 -70.07205 34393 ft 538 kts 192°
2026-04-13 09:46 32.26552 -70.09147 34400 ft 537 kts 192°
2026-04-13 09:47 32.19258 -70.11084 34398 ft 537 kts 192°
2026-04-13 09:47 32.11973 -70.13017 34390 ft 536 kts 192°
2026-04-13 09:48 32.04702 -70.14944 34385 ft 536 kts 192°
2026-04-13 09:48 31.98607 -70.16556 34382 ft 535 kts 192°
2026-04-13 09:49 31.91391 -70.18461 34388 ft 535 kts 192°
2026-04-13 09:49 31.84126 -70.20376 34369 ft 535 kts 192°
2026-04-13 09:50 31.76832 -70.22295 34382 ft 538 kts 192°
2026-04-13 09:50 31.69538 -70.24212 34389 ft 537 kts 192°
2026-04-13 09:51 31.62241 -70.26127 34391 ft 537 kts 192°
2026-04-13 09:51 31.54945 -70.28039 34387 ft 536 kts 191°
2026-04-13 09:52 31.47656 -70.29946 34380 ft 536 kts 191°
2026-04-13 09:52 31.40377 -70.31846 34380 ft 536 kts 191°
2026-04-13 09:53 31.33101 -70.33743 34368 ft 536 kts 191°
2026-04-13 09:53 31.25824 -70.35639 34368 ft 536 kts 191°
2026-04-13 09:54 31.18534 -70.37533 34370 ft 536 kts 191°
2026-04-13 09:54 31.11256 -70.39421 34370 ft 536 kts 191°
2026-04-13 09:55 31.03966 -70.41310 34362 ft 537 kts 191°
2026-04-13 09:55 30.96661 -70.43199 34363 ft 538 kts 191°
2026-04-13 09:56 30.89350 -70.45088 34365 ft 538 kts 191°
2026-04-13 09:56 30.82039 -70.46973 34369 ft 538 kts 191°
2026-04-13 09:57 30.74721 -70.48856 34361 ft 539 kts 191°
2026-04-13 09:57 30.67400 -70.50738 34360 ft 539 kts 191°
2026-04-13 09:58 30.60068 -70.52620 34359 ft 539 kts 191°
2026-04-13 09:58 30.52743 -70.54496 34352 ft 539 kts 191°
2026-04-13 09:59 30.45383 -70.56380 34357 ft 542 kts 191°
2026-04-13 09:59 30.38026 -70.58260 34358 ft 541 kts 191°
2026-04-13 10:00 30.30672 -70.60135 34366 ft 541 kts 191°
2026-04-13 10:00 30.23314 -70.62006 34355 ft 542 kts 191°
2026-04-13 10:01 30.15950 -70.63881 34348 ft 541 kts 191°
2026-04-13 10:01 30.08641 -70.65737 34346 ft 541 kts 191°
2026-04-13 10:02 30.01287 -70.67601 34346 ft 541 kts 191°
2026-04-13 10:02 29.93878 -70.69477 34346 ft 541 kts 191°
2026-04-13 10:03 29.86615 -70.71313 34350 ft 541 kts 191°
2026-04-13 10:03 29.79226 -70.73177 34356 ft 541 kts 191°
2026-04-13 10:04 29.71876 -70.75029 34340 ft 541 kts 191°
2026-04-13 10:04 29.64523 -70.76879 34339 ft 540 kts 191°
2026-04-13 10:05 29.57180 -70.78724 34334 ft 540 kts 191°
2026-04-13 10:05 29.49836 -70.80565 34332 ft 540 kts 191°
2026-04-13 10:06 29.42490 -70.82405 34330 ft 540 kts 191°
2026-04-13 10:06 29.35145 -70.84243 34330 ft 540 kts 191°
2026-04-13 10:07 29.27792 -70.86079 34326 ft 540 kts 191°
2026-04-13 10:07 29.20447 -70.87911 34323 ft 540 kts 191°
2026-04-13 10:08 29.13072 -70.89749 34324 ft 544 kts 191°
2026-04-13 10:08 29.05675 -70.91587 34322 ft 543 kts 191°
2026-04-13 10:09 28.98284 -70.93422 34320 ft 543 kts 191°
2026-04-13 10:09 28.90898 -70.95254 34319 ft 543 kts 191°
2026-04-13 10:10 28.83675 -70.97728 34304 ft 544 kts 204°
2026-04-13 10:10 28.77002 -71.01761 34311 ft 543 kts 211°
2026-04-13 10:11 28.70395 -71.05927 34321 ft 543 kts 210°
2026-04-13 10:11 28.63778 -71.10070 34316 ft 543 kts 210°
2026-04-13 10:12 28.57206 -71.14175 34308 ft 542 kts 210°
2026-04-13 10:12 28.50587 -71.18303 34307 ft 542 kts 210°
2026-04-13 10:13 28.43982 -71.22418 34318 ft 541 kts 210°
2026-04-13 10:13 28.37383 -71.26522 34304 ft 540 kts 210°
2026-04-13 10:14 28.30788 -71.30618 34300 ft 540 kts 210°
2026-04-13 10:14 28.24199 -71.34703 34295 ft 540 kts 209°
2026-04-13 10:15 28.17633 -71.38766 34294 ft 535 kts 209°
2026-04-13 10:15 28.11092 -71.42809 34295 ft 536 kts 209°
2026-04-13 10:16 28.04538 -71.46857 34294 ft 536 kts 209°
2026-04-13 10:16 27.97989 -71.50896 34300 ft 536 kts 209°
2026-04-13 10:17 27.91472 -71.54911 34290 ft 532 kts 209°
2026-04-13 10:17 27.84937 -71.58931 34288 ft 538 kts 209°
2026-04-13 10:18 27.78368 -71.62966 34283 ft 537 kts 209°
2026-04-13 10:18 27.71805 -71.66991 34289 ft 537 kts 209°
2026-04-13 10:19 27.65276 -71.70991 34289 ft 531 kts 208°
2026-04-13 10:19 27.58765 -71.74973 34284 ft 533 kts 208°
2026-04-13 10:20 27.52250 -71.78952 34280 ft 533 kts 208°
2026-04-13 10:20 27.45730 -71.82930 34281 ft 533 kts 208°
2026-04-13 10:21 27.39244 -71.86880 34269 ft 527 kts 208°
2026-04-13 10:21 27.32829 -71.90783 34279 ft 530 kts 208°
2026-04-13 10:22 27.26266 -71.94772 34276 ft 534 kts 208°
2026-04-13 10:22 27.19771 -71.98713 34276 ft 534 kts 208°
2026-04-13 10:23 27.13237 -72.02672 34275 ft 526 kts 208°
2026-04-13 10:23 27.06814 -72.06559 34274 ft 528 kts 208°
2026-04-13 10:24 27.00345 -72.10468 34270 ft 528 kts 208°
2026-04-13 10:24 26.93871 -72.14375 34273 ft 528 kts 208°
2026-04-13 10:25 26.87424 -72.18260 34267 ft 522 kts 209°
2026-04-13 10:25 26.81017 -72.22118 34267 ft 524 kts 209°
2026-04-13 10:26 26.74602 -72.25975 34251 ft 524 kts 208°
2026-04-13 10:26 26.68143 -72.29854 34266 ft 528 kts 208°
2026-04-13 10:27 26.61673 -72.33733 34264 ft 527 kts 208°
2026-04-13 10:27 26.55200 -72.37610 34259 ft 528 kts 208°
2026-04-13 10:28 26.48731 -72.41479 34259 ft 528 kts 208°
2026-04-13 10:28 26.42255 -72.45347 34257 ft 528 kts 208°
2026-04-13 10:29 26.35781 -72.49208 34259 ft 526 kts 208°
2026-04-13 10:29 26.29367 -72.53030 34255 ft 523 kts 208°
2026-04-13 10:30 26.22941 -72.56854 34254 ft 524 kts 208°
2026-04-13 10:30 26.16513 -72.60674 34231 ft 524 kts 208°
2026-04-13 10:31 26.10050 -72.64510 34256 ft 527 kts 208°
2026-04-13 10:31 26.03635 -72.68310 34249 ft 521 kts 209°
2026-04-13 10:32 25.97227 -72.72105 34245 ft 522 kts 209°
2026-04-13 10:32 25.90809 -72.75902 34244 ft 522 kts 209°
2026-04-13 10:33 25.85482 -72.79048 34249 ft 522 kts 209°
2026-04-13 10:33 25.78040 -72.83436 34244 ft 518 kts 209°
2026-04-13 10:34 25.68512 -72.89048 34240 ft 520 kts 209°
2026-04-13 10:34 25.63170 -72.92190 34241 ft 519 kts 209°
2026-04-13 10:35 25.56786 -72.95941 34225 ft 520 kts 209°
2026-04-13 10:35 25.50386 -72.99691 34237 ft 518 kts 210°
2026-04-13 10:36 25.44003 -73.03427 34243 ft 519 kts 210°
2026-04-13 10:36 25.37617 -73.07164 34244 ft 519 kts 210°
2026-04-13 10:37 25.31231 -73.10898 34220 ft 520 kts 210°
2026-04-13 10:37 25.24847 -73.14624 34223 ft 518 kts 210°
2026-04-13 10:38 25.18481 -73.18338 34221 ft 516 kts 210°
2026-04-13 10:38 25.12137 -73.22037 34206 ft 515 kts 210°
2026-04-13 10:39 25.05841 -73.25713 34207 ft 515 kts 211°
2026-04-13 10:39 24.99556 -73.29499 34200 ft 515 kts 211°
2026-04-13 10:40 24.93255 -73.33303 34221 ft 520 kts 212°
2026-04-13 10:40 24.86908 -73.37118 34217 ft 520 kts 211°
2026-04-13 10:41 24.80555 -73.40926 34216 ft 520 kts 211°
2026-04-13 10:41 24.74198 -73.44732 34207 ft 520 kts 211°
2026-04-13 10:42 24.67847 -73.48528 34208 ft 518 kts 212°
2026-04-13 10:42 24.61531 -73.52300 34197 ft 516 kts 212°
2026-04-13 10:43 24.55230 -73.56060 34200 ft 517 kts 212°
2026-04-13 10:43 24.48885 -73.59841 34203 ft 519 kts 212°
2026-04-13 10:44 24.42562 -73.63602 34201 ft 519 kts 212°
2026-04-13 10:44 24.36227 -73.67366 34195 ft 518 kts 212°
2026-04-13 10:45 24.29880 -73.71139 34201 ft 518 kts 212°
2026-04-13 10:45 24.23551 -73.74894 34189 ft 517 kts 212°
2026-04-13 10:46 24.17216 -73.78645 34186 ft 517 kts 212°
2026-04-13 10:46 24.10892 -73.82384 34187 ft 515 kts 213°
2026-04-13 10:47 24.04593 -73.86104 34189 ft 514 kts 213°
2026-04-13 10:47 23.98294 -73.89823 34190 ft 514 kts 213°
2026-04-13 10:48 23.91996 -73.93537 34192 ft 514 kts 213°
2026-04-13 10:48 23.85670 -73.97194 34186 ft 515 kts 211°
2026-04-13 10:49 23.79251 -74.00699 34157 ft 516 kts 211°
2026-04-13 10:49 23.72873 -74.04186 34174 ft 517 kts 211°
2026-04-13 10:50 23.66446 -74.07715 34176 ft 517 kts 211°
2026-04-13 10:50 23.60019 -74.11245 34176 ft 518 kts 211°
2026-04-13 10:51 23.53582 -74.14777 34173 ft 516 kts 212°
2026-04-13 10:51 23.47216 -74.18264 34173 ft 513 kts 212°
2026-04-13 10:52 23.40826 -74.21764 34168 ft 513 kts 212°
2026-04-13 10:52 23.34442 -74.25256 34168 ft 513 kts 212°
2026-04-13 10:53 23.28062 -74.28742 34164 ft 513 kts 212°
2026-04-13 10:53 23.21849 -74.32416 34163 ft 502 kts 217°
2026-04-13 10:54 23.15892 -74.36405 34141 ft 504 kts 217°
2026-04-13 10:54 23.09882 -74.40406 34164 ft 507 kts 217°
2026-04-13 10:55 23.03865 -74.44398 34162 ft 507 kts 217°
2026-04-13 10:55 22.97843 -74.48389 34161 ft 507 kts 217°
2026-04-13 10:56 22.91910 -74.52311 34156 ft 499 kts 218°
2026-04-13 10:56 22.85977 -74.56241 34156 ft 501 kts 218°
2026-04-13 10:57 22.80033 -74.60171 34154 ft 501 kts 218°
2026-04-13 10:57 22.74085 -74.64098 34155 ft 501 kts 218°
2026-04-13 10:58 22.68136 -74.68022 34126 ft 501 kts 217°
2026-04-13 10:58 22.62191 -74.71936 34144 ft 500 kts 218°
2026-04-13 10:59 22.56242 -74.75853 34144 ft 500 kts 218°
2026-04-13 10:59 22.50296 -74.79763 34143 ft 500 kts 218°
2026-04-13 11:00 22.44343 -74.83672 34142 ft 500 kts 218°
2026-04-13 11:00 22.38395 -74.87575 34116 ft 501 kts 218°
2026-04-13 11:01 22.32427 -74.91486 34125 ft 502 kts 218°
2026-04-13 11:01 22.26458 -74.95396 34134 ft 502 kts 218°
2026-04-13 11:02 22.20476 -74.99309 34143 ft 503 kts 218°
2026-04-13 11:02 22.14526 -75.03196 34134 ft 503 kts 218°
2026-04-13 11:03 22.08920 -75.07564 34117 ft 493 kts 229°
2026-04-13 11:03 22.03943 -75.12639 34133 ft 496 kts 229°
2026-04-13 11:04 21.98149 -75.16906 34132 ft 513 kts 213°
2026-04-13 11:04 21.91354 -75.19529 34131 ft 523 kts 202°
2026-04-13 11:05 21.84398 -75.21786 34127 ft 522 kts 202°
2026-04-13 11:05 21.77446 -75.24068 34105 ft 522 kts 203°
2026-04-13 11:06 21.70500 -75.26348 34126 ft 522 kts 203°
2026-04-13 11:06 21.63559 -75.28624 34120 ft 522 kts 203°
2026-04-13 11:07 21.56605 -75.30900 34122 ft 522 kts 203°
2026-04-13 11:07 21.49660 -75.33171 34117 ft 522 kts 203°
2026-04-13 11:08 21.42707 -75.35441 34115 ft 522 kts 203°
2026-04-13 11:08 21.35760 -75.37708 34111 ft 522 kts 203°
2026-04-13 11:09 21.28807 -75.39974 34113 ft 522 kts 203°
2026-04-13 11:09 21.21855 -75.42237 34113 ft 522 kts 203°
2026-04-13 11:10 21.14905 -75.44495 34083 ft 522 kts 204°
2026-04-13 11:10 21.07951 -75.46754 34106 ft 522 kts 204°
2026-04-13 11:11 21.01002 -75.49011 34107 ft 522 kts 204°
2026-04-13 11:11 20.94042 -75.51268 34109 ft 522 kts 204°
2026-04-13 11:12 20.87089 -75.53520 34111 ft 522 kts 204°
2026-04-13 11:12 20.80131 -75.55771 34114 ft 523 kts 204°
2026-04-13 11:13 20.73170 -75.58022 34111 ft 523 kts 204°
2026-04-13 11:13 20.66210 -75.60270 34112 ft 523 kts 204°
2026-04-13 11:14 20.59247 -75.62515 34113 ft 523 kts 204°
2026-04-13 11:14 20.52284 -75.64760 34098 ft 522 kts 204°
2026-04-13 11:15 20.45332 -75.66998 34130 ft 521 kts 204°
2026-04-13 11:15 20.38392 -75.69231 34113 ft 521 kts 204°
2026-04-13 11:16 20.31496 -75.71449 34107 ft 521 kts 204°
2026-04-13 11:16 20.24556 -75.73678 34083 ft 521 kts 204°
2026-04-13 11:17 20.17617 -75.75903 34086 ft 519 kts 204°
2026-04-13 11:17 20.10702 -75.78119 34062 ft 519 kts 204°
2026-04-13 11:18 20.03795 -75.80330 34041 ft 518 kts 204°
2026-04-13 11:18 19.96941 -75.82650 34039 ft 512 kts 209°
2026-04-13 11:19 19.90467 -75.85701 34042 ft 509 kts 212°
2026-04-13 11:19 19.84012 -75.88759 34062 ft 507 kts 211°
2026-04-13 11:20 19.77571 -75.91796 34068 ft 506 kts 211°
2026-04-13 11:20 19.71138 -75.94826 34080 ft 506 kts 211°
2026-04-13 11:21 19.64710 -75.97852 34072 ft 505 kts 211°
2026-04-13 11:21 19.59363 -76.00366 34066 ft 505 kts 211°
2026-04-13 11:22 19.52945 -76.03386 34078 ft 504 kts 211°
2026-04-13 11:22 19.46538 -76.06398 34061 ft 504 kts 211°
2026-04-13 11:23 19.40138 -76.09404 34077 ft 503 kts 211°
2026-04-13 11:23 19.33738 -76.12407 34074 ft 503 kts 211°
2026-04-13 11:24 19.27337 -76.15408 34069 ft 502 kts 211°
2026-04-13 11:24 19.20957 -76.18397 34070 ft 501 kts 211°
2026-04-13 11:25 19.14591 -76.21376 34063 ft 500 kts 211°
2026-04-13 11:25 19.08227 -76.24352 34061 ft 500 kts 211°
2026-04-13 11:26 19.01868 -76.27323 34066 ft 500 kts 211°
2026-04-13 11:26 18.95524 -76.30283 34053 ft 500 kts 211°
2026-04-13 11:27 18.89160 -76.33250 34065 ft 498 kts 210°
2026-04-13 11:27 18.82833 -76.36196 34052 ft 497 kts 210°
2026-04-13 11:28 18.76503 -76.39141 34050 ft 497 kts 210°
2026-04-13 11:28 18.70181 -76.42081 34042 ft 497 kts 210°
2026-04-13 11:29 18.63859 -76.45018 34037 ft 497 kts 210°
2026-04-13 11:29 18.57545 -76.47949 34047 ft 495 kts 210°
2026-04-13 11:30 18.51239 -76.50873 34037 ft 495 kts 210°
2026-04-13 11:30 18.44940 -76.53792 34042 ft 495 kts 210°
2026-04-13 11:31 18.38639 -76.56710 34042 ft 495 kts 210°
2026-04-13 11:31 18.32337 -76.59625 34041 ft 495 kts 210°
2026-04-13 11:32 18.26033 -76.62541 34044 ft 495 kts 210°
2026-04-13 11:32 18.19725 -76.65454 34042 ft 494 kts 210°
2026-04-13 11:33 18.13442 -76.68355 34022 ft 494 kts 210°
2026-04-13 11:34 18.04021 -76.72701 34021 ft 495 kts 210°
2026-04-13 11:34 17.97715 -76.75605 34020 ft 495 kts 210°
2026-04-13 11:35 17.91323 -76.78333 34015 ft 500 kts 203°
2026-04-13 11:35 17.84651 -76.80429 34018 ft 501 kts 202°
2026-04-13 11:36 17.77975 -76.82546 34016 ft 501 kts 202°
2026-04-13 11:36 17.71298 -76.84667 34007 ft 501 kts 202°
2026-04-13 11:37 17.64629 -76.86783 34000 ft 501 kts 202°
2026-04-13 11:37 17.57954 -76.88899 34009 ft 501 kts 202°
2026-04-13 11:38 17.51648 -76.90896 34007 ft 501 kts 202°
2026-04-13 11:38 17.45533 -76.92831 34007 ft 501 kts 202°
2026-04-13 11:39 17.38856 -76.94944 34013 ft 501 kts 202°
2026-04-13 11:39 17.32189 -76.97052 34013 ft 501 kts 202°
2026-04-13 11:40 17.25519 -76.99160 34015 ft 501 kts 202°
2026-04-13 11:40 17.18843 -77.01266 34016 ft 501 kts 202°
2026-04-13 11:41 17.12170 -77.03370 34020 ft 501 kts 202°
2026-04-13 11:41 17.05496 -77.05474 34020 ft 501 kts 202°
2026-04-13 11:42 16.98818 -77.07577 34021 ft 501 kts 202°
2026-04-13 11:42 16.92144 -77.09678 34024 ft 501 kts 202°
2026-04-13 11:43 16.85514 -77.11763 34020 ft 501 kts 202°
2026-04-13 11:43 16.78798 -77.13873 34018 ft 501 kts 202°
2026-04-13 11:44 16.72123 -77.15969 34020 ft 501 kts 202°
2026-04-13 11:44 16.65455 -77.18061 34018 ft 501 kts 202°
2026-04-13 11:45 16.58835 -77.20137 34013 ft 500 kts 202°
2026-04-13 11:45 16.52181 -77.22221 34029 ft 499 kts 202°
2026-04-13 11:46 16.45531 -77.24305 34023 ft 499 kts 201°
2026-04-13 11:46 16.38876 -77.26388 34009 ft 499 kts 201°
2026-04-13 11:47 16.32254 -77.28460 34002 ft 499 kts 201°
2026-04-13 11:47 16.31368 -77.28738 34019 ft 499 kts 201°
2026-04-13 11:48 16.25724 -77.30503 34019 ft 498 kts 201°
2026-04-13 11:48 16.19111 -77.32568 34014 ft 498 kts 201°
2026-04-13 11:49 16.12465 -77.34643 34009 ft 498 kts 201°
2026-04-13 11:49 16.05833 -77.36713 34014 ft 498 kts 201°
2026-04-13 11:50 15.99242 -77.38768 34010 ft 498 kts 201°
2026-04-13 11:50 15.92643 -77.40823 34006 ft 497 kts 201°
2026-04-13 11:51 15.86018 -77.42885 34008 ft 497 kts 201°
2026-04-13 11:51 15.79396 -77.44944 34000 ft 497 kts 201°
2026-04-13 11:52 15.72776 -77.47002 34002 ft 497 kts 201°
2026-04-13 11:52 15.66158 -77.49057 34001 ft 497 kts 201°
2026-04-13 11:53 15.59551 -77.51107 34011 ft 495 kts 201°
2026-04-13 11:53 15.52943 -77.53156 34001 ft 495 kts 201°
2026-04-13 11:54 15.46389 -77.55188 34001 ft 495 kts 201°
2026-04-13 11:54 15.40072 -77.57145 34006 ft 494 kts 201°
2026-04-13 11:55 15.33480 -77.59185 33999 ft 494 kts 201°
2026-04-13 11:55 15.26892 -77.61222 33997 ft 494 kts 201°
2026-04-13 11:56 15.20309 -77.63256 33997 ft 493 kts 201°
2026-04-13 11:56 15.13731 -77.65289 33991 ft 493 kts 201°
2026-04-13 11:57 15.07154 -77.67319 33991 ft 493 kts 201°
2026-04-13 11:57 15.00541 -77.69361 33993 ft 499 kts 201°
2026-04-13 11:58 14.93872 -77.71417 33988 ft 501 kts 201°
2026-04-13 11:58 14.87179 -77.73477 33993 ft 502 kts 201°
2026-04-13 11:59 14.80517 -77.75528 33991 ft 503 kts 201°
2026-04-13 11:59 14.73809 -77.77591 33989 ft 503 kts 201°
2026-04-13 12:00 14.67096 -77.79655 33993 ft 503 kts 201°
2026-04-13 12:00 14.60377 -77.81719 33986 ft 503 kts 201°
2026-04-13 12:01 14.53670 -77.83778 33977 ft 503 kts 201°
2026-04-13 12:01 14.46987 -77.85829 33993 ft 503 kts 201°
2026-04-13 12:02 14.40261 -77.87891 33997 ft 502 kts 201°
2026-04-13 12:02 14.33561 -77.89944 33990 ft 502 kts 201°
2026-04-13 12:03 14.26863 -77.91995 33975 ft 502 kts 201°
2026-04-13 12:03 14.20162 -77.94046 33988 ft 502 kts 201°
2026-04-13 12:04 14.13461 -77.96091 33971 ft 502 kts 201°
2026-04-13 12:04 14.06758 -77.98121 33975 ft 503 kts 199°
2026-04-13 12:05 13.99982 -77.99918 33984 ft 503 kts 199°
2026-04-13 12:05 13.93239 -78.01679 33980 ft 504 kts 198°
2026-04-13 12:06 13.86381 -78.03374 33981 ft 503 kts 198°
2026-04-13 12:06 13.79625 -78.05019 33983 ft 502 kts 198°
2026-04-13 12:07 13.72826 -78.06675 33980 ft 502 kts 198°
2026-04-13 12:07 13.66023 -78.08332 33981 ft 502 kts 198°
2026-04-13 12:08 13.59227 -78.09987 33984 ft 502 kts 198°
2026-04-13 12:08 13.52443 -78.11639 33982 ft 501 kts 198°
2026-04-13 12:09 13.45667 -78.13287 33978 ft 500 kts 198°
2026-04-13 12:09 13.38897 -78.14931 33979 ft 500 kts 198°
2026-04-13 12:10 13.32130 -78.16575 33977 ft 500 kts 198°
2026-04-13 12:10 13.26501 -78.17941 33976 ft 500 kts 198°
2026-04-13 12:11 13.19736 -78.19583 33976 ft 499 kts 197°
2026-04-13 12:11 13.12981 -78.21221 33976 ft 499 kts 197°
2026-04-13 12:12 13.06226 -78.22858 33972 ft 499 kts 197°
2026-04-13 12:12 12.99480 -78.24492 33971 ft 499 kts 197°
2026-04-13 12:13 12.92727 -78.26126 33972 ft 498 kts 197°
2026-04-13 12:13 12.85972 -78.27761 33964 ft 498 kts 197°
2026-04-13 12:14 12.79248 -78.29395 33970 ft 496 kts 196°
2026-04-13 12:14 12.72540 -78.31017 33970 ft 495 kts 196°
2026-04-13 12:15 12.65835 -78.32636 33970 ft 495 kts 196°
2026-04-13 12:15 12.59143 -78.34248 33973 ft 494 kts 196°
2026-04-13 12:16 12.52444 -78.35859 33972 ft 494 kts 196°
2026-04-13 12:16 12.45751 -78.37472 33966 ft 494 kts 196°
2026-04-13 12:17 12.39045 -78.39088 33966 ft 495 kts 196°
2026-04-13 12:17 12.32348 -78.40701 33966 ft 495 kts 196°
2026-04-13 12:18 12.25645 -78.42314 33968 ft 495 kts 196°
2026-04-13 12:18 12.18944 -78.43927 33966 ft 495 kts 196°
2026-04-13 12:19 12.12250 -78.45538 33965 ft 494 kts 196°
2026-04-13 12:19 12.05630 -78.47134 33963 ft 493 kts 196°
2026-04-13 12:20 11.98890 -78.48755 33966 ft 493 kts 196°
2026-04-13 12:20 11.92234 -78.50352 33963 ft 493 kts 196°
2026-04-13 12:21 11.85555 -78.51954 33966 ft 493 kts 196°
2026-04-13 12:21 11.78954 -78.53538 33959 ft 492 kts 195°
2026-04-13 12:22 11.72256 -78.55144 33961 ft 492 kts 195°
2026-04-13 12:22 11.65586 -78.56737 33959 ft 492 kts 195°
2026-04-13 12:23 11.58924 -78.58333 33964 ft 492 kts 196°
2026-04-13 12:23 11.52253 -78.59932 33957 ft 492 kts 195°
2026-04-13 12:24 11.45590 -78.61525 33959 ft 492 kts 196°
2026-04-13 12:24 11.38958 -78.63109 33958 ft 488 kts 195°
2026-04-13 12:25 11.32360 -78.64685 33956 ft 486 kts 195°
2026-04-13 12:25 11.25770 -78.66261 33954 ft 486 kts 195°
2026-04-13 12:26 11.19188 -78.67833 33959 ft 485 kts 196°
2026-04-13 12:26 11.12613 -78.69401 33953 ft 485 kts 195°
2026-04-13 12:27 11.06041 -78.70969 33953 ft 485 kts 195°
2026-04-13 12:27 10.96209 -78.73314 33954 ft 483 kts 195°
2026-04-13 12:28 10.89669 -78.74871 33955 ft 483 kts 195°
2026-04-13 12:28 10.83128 -78.76429 33957 ft 483 kts 195°
2026-04-13 12:29 10.76586 -78.77988 33952 ft 483 kts 195°
2026-04-13 12:29 10.70047 -78.79546 33952 ft 483 kts 195°
2026-04-13 12:30 10.63585 -78.81081 33953 ft 482 kts 195°
2026-04-13 12:30 10.56987 -78.82650 33952 ft 482 kts 195°
2026-04-13 12:31 10.50496 -78.84194 33951 ft 482 kts 195°
2026-04-13 12:31 10.44018 -78.85734 33946 ft 482 kts 195°
2026-04-13 12:32 10.37513 -78.87279 33954 ft 482 kts 195°
2026-04-13 12:32 10.31061 -78.88811 33953 ft 482 kts 194°
2026-04-13 12:33 10.24527 -78.90362 33954 ft 482 kts 195°
2026-04-13 12:33 10.18005 -78.91909 33942 ft 482 kts 194°
2026-04-13 12:34 10.14755 -78.92678 33743 ft 476 kts 194°
2026-04-13 12:34 10.11550 -78.93436 32989 ft 470 kts 194°
2026-04-13 12:34 10.08367 -78.94190 31820 ft 470 kts 194°
2026-04-13 12:34 10.05178 -78.94946 30686 ft 470 kts 195°
2026-04-13 12:35 10.01971 -78.95708 28921 ft 478 kts 195°
2026-04-13 12:35 9.98686 -78.96490 27301 ft 490 kts 194°
2026-04-13 12:35 9.95365 -78.97277 26255 ft 490 kts 194°
2026-04-13 12:35 9.92834 -78.97875 25733 ft 484 kts 194°
2026-04-13 12:36 9.89591 -78.98640 25300 ft 472 kts 194°
2026-04-13 12:36 9.86398 -78.99396 25060 ft 475 kts 194°
2026-04-13 12:36 9.83175 -79.00158 24855 ft 478 kts 195°
2026-04-13 12:36 9.79940 -79.00923 24488 ft 475 kts 194°
2026-04-13 12:37 9.76737 -79.01679 23984 ft 469 kts 194°
2026-04-13 12:37 9.73572 -79.02425 23364 ft 463 kts 194°
2026-04-13 12:37 9.70519 -79.03149 22155 ft 454 kts 194°
2026-04-13 12:37 9.67439 -79.03879 20992 ft 459 kts 195°
2026-04-13 12:38 9.64278 -79.04627 20191 ft 453 kts 194°
2026-04-13 12:38 9.61242 -79.05346 19712 ft 442 kts 194°
2026-04-13 12:38 9.58249 -79.06052 19322 ft 446 kts 194°
2026-04-13 12:38 9.55221 -79.06768 18940 ft 444 kts 194°
2026-04-13 12:39 9.52226 -79.07475 18396 ft 440 kts 194°
2026-04-13 12:39 9.49250 -79.08178 17568 ft 438 kts 194°
2026-04-13 12:39 9.46308 -79.08875 16828 ft 430 kts 193°
2026-04-13 12:39 9.43423 -79.09557 15970 ft 425 kts 193°
2026-04-13 12:40 9.40554 -79.10236 15067 ft 422 kts 193°
2026-04-13 12:40 9.37726 -79.10904 14458 ft 412 kts 193°
2026-04-13 12:40 9.34946 -79.11560 13739 ft 409 kts 192°
2026-04-13 12:40 9.32185 -79.12213 13239 ft 408 kts 192°
2026-04-13 12:41 9.29417 -79.12864 13068 ft 408 kts 192°
2026-04-13 12:41 9.26693 -79.13670 12988 ft 410 kts 200°
2026-04-13 12:41 9.24136 -79.14877 12991 ft 412 kts 209°
2026-04-13 12:41 9.21697 -79.16467 13049 ft 409 kts 214°
2026-04-13 12:42 9.19327 -79.18082 13073 ft 412 kts 213°
2026-04-13 12:42 9.16944 -79.19684 13100 ft 411 kts 213°
2026-04-13 12:42 9.14589 -79.21259 13043 ft 391 kts 213°
2026-04-13 12:42 9.12415 -79.22711 12924 ft 359 kts 213°
2026-04-13 12:43 9.10417 -79.24044 12822 ft 330 kts 212°
2026-04-13 12:43 9.08567 -79.25278 12597 ft 311 kts 213°
2026-04-13 12:43 9.06755 -79.26488 12077 ft 321 kts 213°
2026-04-13 12:43 9.04888 -79.27737 11486 ft 320 kts 212°
2026-04-13 12:44 9.03046 -79.28967 10898 ft 315 kts 213°
2026-04-13 12:44 9.01236 -79.30072 10319 ft 307 kts 207°
2026-04-13 12:44 8.99318 -79.31118 9745 ft 309 kts 207°
2026-04-13 12:44 8.97408 -79.32166 9107 ft 314 kts 207°
2026-04-13 12:45 8.95488 -79.33222 8481 ft 313 kts 208°
2026-04-13 12:45 8.93600 -79.34265 7871 ft 305 kts 208°
2026-04-13 12:45 8.91777 -79.35271 7290 ft 296 kts 208°
2026-04-13 12:45 8.89979 -79.36264 6700 ft 288 kts 208°
2026-04-13 12:46 8.88259 -79.37215 6111 ft 281 kts 208°
2026-04-13 12:46 8.86538 -79.38165 5490 ft 280 kts 209°
2026-04-13 12:46 8.84956 -79.39278 4883 ft 275 kts 228°
2026-04-13 12:46 8.83978 -79.40884 4283 ft 265 kts 256°
2026-04-13 12:47 8.83794 -79.42670 3680 ft 252 kts 284°
2026-04-13 12:47 8.84403 -79.44257 3082 ft 237 kts 313°
2026-04-13 12:47 8.85609 -79.45324 2527 ft 227 kts 335°
2026-04-13 12:47 8.86979 -79.45927 2263 ft 211 kts 340°
2026-04-13 12:48 8.88358 -79.46600 2196 ft 220 kts 335°
2026-04-13 12:48 8.89778 -79.47059 2212 ft 214 kts
2026-04-13 12:48 8.91224 -79.46803 2203 ft 210 kts 20°
2026-04-13 12:48 8.92486 -79.46212 2199 ft 188 kts 28°
2026-04-13 12:49 8.93562 -79.45608 2188 ft 166 kts 28°
2026-04-13 12:49 8.94541 -79.45063 2224 ft 167 kts 30°
2026-04-13 12:49 8.95543 -79.44489 2017 ft 165 kts 29°
2026-04-13 12:49 8.96527 -79.43934 1811 ft 155 kts 29°
2026-04-13 12:50 8.97417 -79.43424 1628 ft 138 kts 27°
2026-04-13 12:50 8.98289 -79.42938 1464 ft 149 kts 28°
2026-04-13 12:50 8.99161 -79.42439 1260 ft 136 kts 28°
2026-04-13 12:50 8.99977 -79.41977 1073 ft 137 kts 28°
2026-04-13 12:51 9.00808 -79.41501 912 ft 134 kts 28°
2026-04-13 12:51 9.01627 -79.40988 583 ft 148 kts 30°
2026-04-13 12:51 9.02515 -79.40473 425 ft 150 kts 26°
2026-04-13 12:51 9.03441 -79.39989 329 ft 146 kts 25°
2026-04-13 12:52 9.04349 -79.39491 175 ft 148 kts 27°
2026-04-13 12:52 9.05242 -79.38985 42 ft 144 kts 28°
2026-04-13 12:52 9.06015 -79.38556 38 ft 111 kts 30°
2026-04-13 12:52 9.06598 -79.38225 35 ft 75 kts 29°
2026-04-13 12:53 9.06982 -79.38009 35 ft 50 kts 29°
2026-04-13 12:53 9.07118 -79.37933 36 ft 18 kts 26°
2026-04-13 12:53 9.07179 -79.37975 36 ft 11 kts 289°
2026-04-13 12:53 9.07191 -79.38055 36 ft 4 kts 236°
2026-04-13 12:54 9.07050 -79.38146 36 ft 33 kts 208°
2026-04-13 12:54 9.06874 -79.38276 36 ft 32 kts 234°
2026-04-13 12:54 9.06765 -79.38403 36 ft 19 kts 212°
2026-04-13 12:54 9.06662 -79.38472 36 ft 7 kts 245°
2026-04-13 12:55 9.06683 -79.38516 35 ft 9 kts 302°
2026-04-13 12:55 9.06706 -79.38553 36 ft 0 kts 302°